Time,TemperatureF,DewpointF,PressureIn,WindDirection,WindDirectionDegrees,WindSpeedMPH,WindSpeedGustMPH,Humidity,HourlyPrecipIn,Conditions,Clouds,dailyrainin,SoftwareType,DateUTC
2013-06-28 00:00:00,67.2,58.2,29.70,NW,321,2.0,2.0,73,0.00,,,0.00,Wunderground v.1.13,2013-06-28 05:00:00,
2013-06-28 00:05:00,66.9,58.3,29.70,NW,321,1.0,1.0,74,0.00,,,0.00,Wunderground v.1.13,2013-06-28 05:05:00,
2013-06-28 00:06:00,66.8,58.2,29.70,NW,321,1.0,1.0,74,0.00,,,0.00,Wunderground v.1.13,2013-06-28 05:06:00,
2013-06-28 00:07:00,66.7,58.1,29.70,NW,321,1.0,1.0,74,0.00,,,0.00,Wunderground v.1.13,2013-06-28 05:07:00,
2013-06-28 00:11:00,66.4,58.2,29.69,NW,304,1.0,4.0,75,0.00,,,0.00,Wunderground v.1.13,2013-06-28 05:11:00,
2013-06-28 00:12:00,66.4,58.2,29.70,WNW,303,1.0,4.0,75,0.00,,,0.00,Wunderground v.1.13,2013-06-28 05:12:00,
2013-06-28 00:14:00,66.3,58.1,29.70,NW,304,1.0,4.0,75,0.00,,,0.00,Wunderground v.1.13,2013-06-28 05:14:00,
2013-06-28 00:16:00,66.2,58.0,29.70,WNW,303,1.0,1.0,75,0.00,,,0.00,Wunderground v.1.13,2013-06-28 05:16:00,
2013-06-28 00:17:00,66.2,58.0,29.70,NW,304,1.0,1.0,75,0.00,,,0.00,Wunderground v.1.13,2013-06-28 05:17:00,
2013-06-28 00:20:00,66.1,58.3,29.70,WNW,303,1.0,2.0,76,0.00,,,0.00,Wunderground v.1.13,2013-06-28 05:20:00,
2013-06-28 00:21:00,66.1,58.3,29.70,WNW,303,1.0,2.0,76,0.00,,,0.00,Wunderground v.1.13,2013-06-28 05:21:00,
2013-06-28 00:23:00,66.1,58.3,29.70,WNW,303,1.0,3.0,76,0.00,,,0.00,Wunderground v.1.13,2013-06-28 05:23:00,
2013-06-28 00:25:00,66.2,58.4,29.70,WNW,303,1.0,1.0,76,0.00,,,0.00,Wunderground v.1.13,2013-06-28 05:25:00,
2013-06-28 00:28:00,66.3,58.5,29.70,NW,304,2.0,3.0,76,0.00,,,0.00,Wunderground v.1.13,2013-06-28 05:28:00,
2013-06-28 00:29:00,66.3,58.5,29.70,NW,304,2.0,3.0,76,0.00,,,0.00,Wunderground v.1.13,2013-06-28 05:29:00,
2013-06-28 00:31:00,66.3,58.5,29.70,NW,304,1.0,1.0,76,0.00,,,0.00,Wunderground v.1.13,2013-06-28 05:31:00,
2013-06-28 00:33:00,66.3,58.9,29.70,NW,304,1.0,2.0,77,0.00,,,0.00,Wunderground v.1.13,2013-06-28 05:33:00,
2013-06-28 00:36:00,66.4,58.6,29.70,WNW,294,2.0,4.0,76,0.00,,,0.00,Wunderground v.1.13,2013-06-28 05:36:00,
2013-06-28 00:38:00,66.6,58.4,29.70,WNW,294,2.0,4.0,75,0.00,,,0.00,Wunderground v.1.13,2013-06-28 05:38:00,
2013-06-28 00:39:00,66.6,58.1,29.70,WNW,292,2.0,4.0,74,0.00,,,0.00,Wunderground v.1.13,2013-06-28 05:39:00,
2013-06-28 00:41:00,66.9,58.0,29.70,West,269,2.0,4.0,73,0.00,,,0.00,Wunderground v.1.13,2013-06-28 05:41:00,
2013-06-28 00:43:00,67.1,57.8,29.70,West,269,3.0,4.0,72,0.00,,,0.00,Wunderground v.1.13,2013-06-28 05:43:00,
2013-06-28 00:45:00,67.3,58.0,29.70,West,268,3.0,4.0,72,0.00,,,0.00,Wunderground v.1.13,2013-06-28 05:45:00,
2013-06-28 00:46:00,67.4,57.7,29.70,West,268,3.0,4.0,71,0.00,,,0.00,Wunderground v.1.13,2013-06-28 05:46:00,
2013-06-28 00:48:00,67.6,57.5,29.70,West,268,3.0,4.0,70,0.00,,,0.00,Wunderground v.1.13,2013-06-28 05:48:00,
2013-06-28 00:49:00,67.7,57.6,29.70,West,268,4.0,4.0,70,0.00,,,0.00,Wunderground v.1.13,2013-06-28 05:49:00,
2013-06-28 00:50:00,67.7,57.6,29.70,West,268,4.0,4.0,70,0.00,,,0.00,Wunderground v.1.13,2013-06-28 05:50:00,
2013-06-28 00:52:00,67.8,57.7,29.70,West,268,3.0,4.0,70,0.00,,,0.00,Wunderground v.1.13,2013-06-28 05:52:00,
2013-06-28 00:54:00,67.9,57.4,29.70,West,265,3.0,4.0,69,0.00,,,0.00,Wunderground v.1.13,2013-06-28 05:54:00,
2013-06-28 00:58:00,67.9,57.4,29.70,West,265,3.0,3.0,69,0.00,,,0.00,Wunderground v.1.13,2013-06-28 05:58:00,
2013-06-28 00:59:00,67.9,57.4,29.70,West,265,3.0,3.0,69,0.00,,,0.00,Wunderground v.1.13,2013-06-28 05:59:00,
2013-06-28 01:00:00,67.8,57.3,29.70,West,265,2.0,2.0,69,0.00,,,0.00,Wunderground v.1.13,2013-06-28 06:00:00,
2013-06-28 01:02:00,67.8,57.3,29.70,West,265,2.0,2.0,69,0.00,,,0.00,Wunderground v.1.13,2013-06-28 06:02:00,
2013-06-28 01:04:00,67.7,57.6,29.70,West,265,1.0,2.0,70,0.00,,,0.00,Wunderground v.1.13,2013-06-28 06:04:00,
2013-06-28 01:05:00,67.6,57.5,29.70,West,265,1.0,2.0,70,0.00,,,0.00,Wunderground v.1.13,2013-06-28 06:05:00,
2013-06-28 01:06:00,67.6,57.5,29.70,West,265,2.0,2.0,70,0.00,,,0.00,Wunderground v.1.13,2013-06-28 06:06:00,
2013-06-28 01:10:00,67.3,57.2,29.70,West,265,1.0,1.0,70,0.00,,,0.00,Wunderground v.1.13,2013-06-28 06:10:00,
2013-06-28 01:12:00,67.2,57.1,29.70,West,265,1.0,2.0,70,0.00,,,0.00,Wunderground v.1.13,2013-06-28 06:12:00,
2013-06-28 01:13:00,67.2,57.1,29.70,West,265,1.0,3.0,70,0.00,,,0.00,Wunderground v.1.13,2013-06-28 06:13:00,
2013-06-28 01:14:00,67.2,57.1,29.70,West,265,2.0,3.0,70,0.00,,,0.00,Wunderground v.1.13,2013-06-28 06:14:00,
2013-06-28 01:16:00,67.2,57.5,29.70,West,265,2.0,4.0,71,0.00,,,0.00,Wunderground v.1.13,2013-06-28 06:16:00,
2013-06-28 01:19:00,67.1,57.4,29.70,West,265,2.0,4.0,71,0.00,,,0.00,Wunderground v.1.13,2013-06-28 06:19:00,
2013-06-28 01:20:00,67.1,57.4,29.70,West,265,2.0,2.0,71,0.00,,,0.00,Wunderground v.1.13,2013-06-28 06:20:00,
2013-06-28 01:21:00,67.2,57.5,29.70,West,265,2.0,2.0,71,0.00,,,0.00,Wunderground v.1.13,2013-06-28 06:21:00,
2013-06-28 01:22:00,67.2,57.5,29.70,West,265,2.0,2.0,71,0.00,,,0.00,Wunderground v.1.13,2013-06-28 06:22:00,
2013-06-28 01:25:00,67.1,57.4,29.70,West,265,1.0,2.0,71,0.00,,,0.00,Wunderground v.1.13,2013-06-28 06:25:00,
2013-06-28 01:27:00,67.2,57.5,29.70,West,265,2.0,4.0,71,0.00,,,0.00,Wunderground v.1.13,2013-06-28 06:27:00,
2013-06-28 01:30:00,67.2,57.5,29.70,West,265,2.0,2.0,71,0.00,,,0.00,Wunderground v.1.13,2013-06-28 06:30:00,
2013-06-28 01:33:00,67.2,57.5,29.70,West,265,2.0,4.0,71,0.00,,,0.00,Wunderground v.1.13,2013-06-28 06:33:00,
2013-06-28 01:36:00,67.3,57.6,29.70,West,265,2.0,5.0,71,0.00,,,0.00,Wunderground v.1.13,2013-06-28 06:36:00,
2013-06-28 01:39:00,67.4,57.7,29.70,West,265,2.0,5.0,71,0.00,,,0.00,Wunderground v.1.13,2013-06-28 06:39:00,
2013-06-28 01:41:00,67.4,57.7,29.70,West,265,2.0,2.0,71,0.00,,,0.00,Wunderground v.1.13,2013-06-28 06:41:00,
2013-06-28 01:42:00,67.4,57.7,29.70,West,265,2.0,2.0,71,0.00,,,0.00,Wunderground v.1.13,2013-06-28 06:42:00,
2013-06-28 01:43:00,67.4,57.7,29.70,West,265,2.0,2.0,71,0.00,,,0.00,Wunderground v.1.13,2013-06-28 06:43:00,
2013-06-28 01:45:00,67.4,57.7,29.70,West,265,2.0,2.0,71,0.00,,,0.00,Wunderground v.1.13,2013-06-28 06:45:00,
2013-06-28 01:48:00,67.5,58.2,29.70,West,265,2.0,2.0,72,0.00,,,0.00,Wunderground v.1.13,2013-06-28 06:48:00,
2013-06-28 01:49:00,67.5,58.2,29.70,West,266,1.0,4.0,72,0.00,,,0.00,Wunderground v.1.13,2013-06-28 06:49:00,
2013-06-28 01:52:00,67.4,58.1,29.70,West,265,1.0,2.0,72,0.00,,,0.00,Wunderground v.1.13,2013-06-28 06:52:00,
2013-06-28 01:54:00,67.4,58.4,29.69,West,265,1.0,2.0,73,0.00,,,0.00,Wunderground v.1.13,2013-06-28 06:54:00,
2013-06-28 01:56:00,67.4,58.4,29.70,West,265,2.0,4.0,73,0.00,,,0.00,Wunderground v.1.13,2013-06-28 06:56:00,
2013-06-28 01:57:00,67.5,58.5,29.69,West,265,2.0,4.0,73,0.00,,,0.00,Wunderground v.1.13,2013-06-28 06:57:00,
2013-06-28 01:59:00,67.5,58.5,29.69,West,265,2.0,4.0,73,0.00,,,0.00,Wunderground v.1.13,2013-06-28 06:59:00,
2013-06-28 02:01:00,67.5,58.5,29.69,West,265,2.0,2.0,73,0.00,,,0.00,Wunderground v.1.13,2013-06-28 07:01:00,
2013-06-28 02:02:00,67.6,58.6,29.69,West,265,2.0,5.0,73,0.00,,,0.00,Wunderground v.1.13,2013-06-28 07:02:00,
2013-06-28 02:03:00,67.6,58.6,29.69,West,265,2.0,5.0,73,0.00,,,0.00,Wunderground v.1.13,2013-06-28 07:03:00,
2013-06-28 02:07:00,67.6,58.2,29.69,West,265,3.0,6.0,72,0.00,,,0.00,Wunderground v.1.13,2013-06-28 07:07:00,
2013-06-28 02:08:00,67.6,58.2,29.69,West,264,3.0,6.0,72,0.00,,,0.00,Wunderground v.1.13,2013-06-28 07:08:00,
2013-06-28 02:09:00,67.6,58.2,29.69,West,264,3.0,6.0,72,0.00,,,0.00,Wunderground v.1.13,2013-06-28 07:09:00,
2013-06-28 02:11:00,67.5,58.2,29.69,West,261,3.0,3.0,72,0.00,,,0.00,Wunderground v.1.13,2013-06-28 07:11:00,
2013-06-28 02:13:00,67.6,58.2,29.69,WSW,254,3.0,5.0,72,0.00,,,0.00,Wunderground v.1.13,2013-06-28 07:13:00,
2013-06-28 02:14:00,67.6,58.2,29.69,West,259,4.0,5.0,72,0.00,,,0.00,Wunderground v.1.13,2013-06-28 07:14:00,
2013-06-28 02:16:00,67.6,58.2,29.69,West,261,3.0,5.0,72,0.00,,,0.00,Wunderground v.1.13,2013-06-28 07:16:00,
2013-06-28 02:19:00,67.6,58.2,29.69,West,261,3.0,5.0,72,0.00,,,0.00,Wunderground v.1.13,2013-06-28 07:19:00,
2013-06-28 02:20:00,67.6,58.2,29.69,West,259,4.0,4.0,72,0.00,,,0.00,Wunderground v.1.13,2013-06-28 07:20:00,
2013-06-28 02:22:00,67.7,58.0,29.69,WSW,243,4.0,7.0,71,0.00,,,0.00,Wunderground v.1.13,2013-06-28 07:22:00,
2013-06-28 02:24:00,67.7,58.0,29.69,WSW,252,4.0,7.0,71,0.00,,,0.00,Wunderground v.1.13,2013-06-28 07:24:00,
2013-06-28 02:25:00,67.8,58.1,29.69,WSW,245,4.0,4.0,71,0.00,,,0.00,Wunderground v.1.13,2013-06-28 07:25:00,
2013-06-28 02:28:00,67.8,58.4,29.69,West,264,4.0,6.0,72,0.00,,,0.00,Wunderground v.1.13,2013-06-28 07:28:00,
2013-06-28 02:29:00,67.8,58.4,29.69,West,264,4.0,6.0,72,0.00,,,0.00,Wunderground v.1.13,2013-06-28 07:29:00,
2013-06-28 02:30:00,67.7,58.3,29.69,West,264,3.0,3.0,72,0.00,,,0.00,Wunderground v.1.13,2013-06-28 07:30:00,
2013-06-28 02:36:00,67.6,58.2,29.69,West,260,3.0,7.0,72,0.00,,,0.00,Wunderground v.1.13,2013-06-28 07:36:00,
2013-06-28 02:37:00,67.6,58.2,29.69,West,261,3.0,7.0,72,0.00,,,0.00,Wunderground v.1.13,2013-06-28 07:37:00,
2013-06-28 02:42:00,67.5,58.2,29.69,WSW,253,5.0,5.0,72,0.00,,,0.00,Wunderground v.1.13,2013-06-28 07:42:00,
2013-06-28 02:45:00,67.4,58.1,29.69,West,263,5.0,5.0,72,0.00,,,0.00,Wunderground v.1.13,2013-06-28 07:45:00,
2013-06-28 02:47:00,67.4,58.4,29.69,West,260,4.0,5.0,73,0.00,,,0.00,Wunderground v.1.13,2013-06-28 07:47:00,
2013-06-28 02:49:00,67.4,58.4,29.69,West,260,4.0,5.0,73,0.00,,,0.00,Wunderground v.1.13,2013-06-28 07:49:00,
2013-06-28 02:50:00,67.3,58.3,29.69,WSW,254,4.0,5.0,73,0.00,,,0.00,Wunderground v.1.13,2013-06-28 07:50:00,
2013-06-28 02:55:00,67.4,58.1,29.69,West,261,5.0,7.0,72,0.00,,,0.00,Wunderground v.1.13,2013-06-28 07:55:00,
2013-06-28 02:56:00,67.4,58.1,29.69,West,261,5.0,7.0,72,0.00,,,0.00,Wunderground v.1.13,2013-06-28 07:56:00,
2013-06-28 02:57:00,67.4,58.1,29.69,WNW,288,5.0,7.0,72,0.00,,,0.00,Wunderground v.1.13,2013-06-28 07:57:00,
2013-06-28 02:58:00,67.4,58.1,29.69,WSW,248,5.0,7.0,72,0.00,,,0.00,Wunderground v.1.13,2013-06-28 07:58:00,
2013-06-28 02:59:00,67.5,58.2,29.69,WSW,248,5.0,7.0,72,0.00,,,0.00,Wunderground v.1.13,2013-06-28 07:59:00,
2013-06-28 03:01:00,67.5,58.2,29.69,WSW,255,5.0,5.0,72,0.00,,,0.00,Wunderground v.1.13,2013-06-28 08:01:00,
2013-06-28 03:03:00,67.5,58.2,29.69,WSW,254,5.0,5.0,72,0.00,,,0.00,Wunderground v.1.13,2013-06-28 08:03:00,
2013-06-28 03:05:00,67.5,58.2,29.69,West,275,5.0,6.0,72,0.00,,,0.00,Wunderground v.1.13,2013-06-28 08:05:00,
2013-06-28 03:07:00,67.4,58.1,29.69,WSW,252,5.0,6.0,72,0.00,,,0.00,Wunderground v.1.13,2013-06-28 08:07:00,
2013-06-28 03:09:00,67.4,58.1,29.69,West,274,5.0,6.0,72,0.00,,,0.00,Wunderground v.1.13,2013-06-28 08:09:00,
2013-06-28 03:12:00,67.4,58.1,29.69,West,266,5.0,5.0,72,0.00,,,0.00,Wunderground v.1.13,2013-06-28 08:12:00,
2013-06-28 03:13:00,67.3,58.0,29.69,West,265,5.0,5.0,72,0.00,,,0.00,Wunderground v.1.13,2013-06-28 08:13:00,
2013-06-28 03:14:00,67.3,58.3,29.68,WSW,250,4.0,5.0,73,0.00,,,0.00,Wunderground v.1.13,2013-06-28 08:14:00,
2013-06-28 03:15:00,67.2,58.2,29.69,West,268,4.0,4.0,73,0.00,,,0.00,Wunderground v.1.13,2013-06-28 08:15:00,
2013-06-28 03:16:00,67.2,58.2,29.69,West,265,4.0,4.0,73,0.00,,,0.00,Wunderground v.1.13,2013-06-28 08:16:00,
2013-06-28 03:20:00,67.2,58.2,29.68,West,264,4.0,6.0,73,0.00,,,0.00,Wunderground v.1.13,2013-06-28 08:20:00,
2013-06-28 03:21:00,67.2,58.2,29.68,West,261,4.0,6.0,73,0.00,,,0.00,Wunderground v.1.13,2013-06-28 08:21:00,
2013-06-28 03:22:00,67.2,58.2,29.68,West,266,4.0,6.0,73,0.00,,,0.00,Wunderground v.1.13,2013-06-28 08:22:00,
2013-06-28 03:26:00,67.2,58.2,29.68,West,259,5.0,5.0,73,0.00,,,0.00,Wunderground v.1.13,2013-06-28 08:26:00,
2013-06-28 03:27:00,67.2,58.2,29.68,WSW,256,5.0,6.0,73,0.00,,,0.00,Wunderground v.1.13,2013-06-28 08:27:00,
2013-06-28 03:28:00,67.2,58.2,29.68,WNW,286,5.0,6.0,73,0.00,,,0.00,Wunderground v.1.13,2013-06-28 08:28:00,
2013-06-28 03:31:00,67.2,57.9,29.68,West,265,5.0,5.0,72,0.00,,,0.00,Wunderground v.1.13,2013-06-28 08:31:00,
2013-06-28 03:32:00,67.2,58.2,29.68,WSW,251,6.0,7.0,73,0.00,,,0.00,Wunderground v.1.13,2013-06-28 08:32:00,
2013-06-28 03:34:00,67.2,58.2,29.68,West,269,6.0,7.0,73,0.00,,,0.00,Wunderground v.1.13,2013-06-28 08:34:00,
2013-06-28 03:35:00,67.2,58.2,29.68,WSW,255,6.0,6.0,73,0.00,,,0.00,Wunderground v.1.13,2013-06-28 08:35:00,
2013-06-28 03:37:00,67.2,58.2,29.68,West,260,6.0,6.0,73,0.00,,,0.00,Wunderground v.1.13,2013-06-28 08:37:00,
2013-06-28 03:40:00,67.2,58.2,29.68,WSW,250,5.0,7.0,73,0.00,,,0.00,Wunderground v.1.13,2013-06-28 08:40:00,
2013-06-28 03:41:00,67.1,58.2,29.68,WSW,252,5.0,8.0,73,0.00,,,0.00,Wunderground v.1.13,2013-06-28 08:41:00,
2013-06-28 03:44:00,67.1,58.2,29.68,WSW,237,5.0,11.0,73,0.00,,,0.00,Wunderground v.1.13,2013-06-28 08:44:00,
2013-06-28 03:45:00,67.1,58.2,29.68,WSW,246,6.0,6.0,73,0.00,,,0.00,Wunderground v.1.13,2013-06-28 08:45:00,
2013-06-28 03:46:00,67.1,58.2,29.68,West,269,5.0,6.0,73,0.00,,,0.00,Wunderground v.1.13,2013-06-28 08:46:00,
2013-06-28 03:47:00,67.1,58.2,29.68,West,268,5.0,7.0,73,0.00,,,0.00,Wunderground v.1.13,2013-06-28 08:47:00,
2013-06-28 03:50:00,67.1,58.2,29.68,West,259,6.0,6.0,73,0.00,,,0.00,Wunderground v.1.13,2013-06-28 08:50:00,
2013-06-28 03:51:00,67.1,58.2,29.68,West,263,6.0,6.0,73,0.00,,,0.00,Wunderground v.1.13,2013-06-28 08:51:00,
2013-06-28 03:52:00,67.1,58.2,29.68,West,262,6.0,6.0,73,0.00,,,0.00,Wunderground v.1.13,2013-06-28 08:52:00,
2013-06-28 03:53:00,67.1,58.2,29.68,WSW,249,6.0,10.0,73,0.00,,,0.00,Wunderground v.1.13,2013-06-28 08:53:00,
2013-06-28 03:56:00,67.1,58.2,29.68,West,268,6.0,6.0,73,0.00,,,0.00,Wunderground v.1.13,2013-06-28 08:56:00,
2013-06-28 03:58:00,67.1,58.2,29.68,West,261,6.0,10.0,73,0.00,,,0.00,Wunderground v.1.13,2013-06-28 08:58:00,
2013-06-28 04:01:00,67.1,58.2,29.68,West,269,6.0,6.0,73,0.00,,,0.00,Wunderground v.1.13,2013-06-28 09:01:00,
2013-06-28 04:02:00,67.1,58.2,29.67,WSW,252,6.0,7.0,73,0.00,,,0.00,Wunderground v.1.13,2013-06-28 09:02:00,
2013-06-28 04:03:00,67.1,58.2,29.67,WSW,254,6.0,7.0,73,0.00,,,0.00,Wunderground v.1.13,2013-06-28 09:03:00,
2013-06-28 04:04:00,67.1,58.2,29.67,WSW,248,6.0,7.0,73,0.00,,,0.00,Wunderground v.1.13,2013-06-28 09:04:00,
2013-06-28 04:05:00,67.1,58.2,29.67,WSW,242,6.0,11.0,73,0.00,,,0.00,Wunderground v.1.13,2013-06-28 09:05:00,
2013-06-28 04:07:00,67.2,58.2,29.67,West,261,6.0,11.0,73,0.00,,,0.00,Wunderground v.1.13,2013-06-28 09:07:00,
2013-06-28 04:10:00,67.2,57.9,29.67,West,259,6.0,6.0,72,0.00,,,0.00,Wunderground v.1.13,2013-06-28 09:10:00,
2013-06-28 04:11:00,67.2,57.9,29.67,West,259,6.0,6.0,72,0.00,,,0.00,Wunderground v.1.13,2013-06-28 09:11:00,
2013-06-28 04:12:00,67.2,57.9,29.67,West,259,6.0,6.0,72,0.00,,,0.00,Wunderground v.1.13,2013-06-28 09:12:00,
2013-06-28 04:15:00,67.1,57.8,29.68,WSW,257,6.0,6.0,72,0.00,,,0.00,Wunderground v.1.13,2013-06-28 09:15:00,
2013-06-28 04:16:00,67.1,57.8,29.68,West,267,6.0,6.0,72,0.00,,,0.00,Wunderground v.1.13,2013-06-28 09:16:00,
2013-06-28 04:17:00,67.1,57.8,29.68,WSW,253,6.0,6.0,72,0.00,,,0.00,Wunderground v.1.13,2013-06-28 09:17:00,
2013-06-28 04:19:00,67.1,57.8,29.68,West,276,6.0,6.0,72,0.00,,,0.00,Wunderground v.1.13,2013-06-28 09:19:00,
2013-06-28 04:20:00,67.1,58.2,29.68,West,261,6.0,6.0,73,0.00,,,0.00,Wunderground v.1.13,2013-06-28 09:20:00,
2013-06-28 04:22:00,67.0,57.7,29.67,WSW,250,6.0,7.0,72,0.00,,,0.00,Wunderground v.1.13,2013-06-28 09:22:00,
2013-06-28 04:23:00,67.1,57.8,29.67,West,263,6.0,7.0,72,0.00,,,0.00,Wunderground v.1.13,2013-06-28 09:23:00,
2013-06-28 04:27:00,67.0,57.7,29.67,West,259,6.0,9.0,72,0.00,,,0.00,Wunderground v.1.13,2013-06-28 09:27:00,
2013-06-28 04:30:00,67.1,58.2,29.67,West,269,7.0,7.0,73,0.00,,,0.00,Wunderground v.1.13,2013-06-28 09:30:00,
2013-06-28 04:31:00,67.1,57.8,29.67,WSW,244,7.0,7.0,72,0.00,,,0.00,Wunderground v.1.13,2013-06-28 09:31:00,
2013-06-28 04:33:00,67.0,57.7,29.67,West,261,6.0,9.0,72,0.00,,,0.00,Wunderground v.1.13,2013-06-28 09:33:00,
2013-06-28 04:36:00,67.0,57.7,29.67,West,274,7.0,7.0,72,0.00,,,0.00,Wunderground v.1.13,2013-06-28 09:36:00,
2013-06-28 04:37:00,67.0,57.7,29.67,West,265,7.0,12.0,72,0.00,,,0.00,Wunderground v.1.13,2013-06-28 09:37:00,
2013-06-28 04:39:00,66.9,57.6,29.67,WSW,258,7.0,12.0,72,0.00,,,0.00,Wunderground v.1.13,2013-06-28 09:39:00,
2013-06-28 04:41:00,66.9,57.6,29.67,West,261,7.0,7.0,72,0.00,,,0.00,Wunderground v.1.13,2013-06-28 09:41:00,
2013-06-28 04:44:00,66.9,57.6,29.67,WSW,256,7.0,10.0,72,0.00,,,0.00,Wunderground v.1.13,2013-06-28 09:44:00,
2013-06-28 04:45:00,66.9,57.6,29.67,West,272,7.0,7.0,72,0.00,,,0.00,Wunderground v.1.13,2013-06-28 09:45:00,
2013-06-28 04:49:00,67.0,57.7,29.67,West,269,8.0,10.0,72,0.00,,,0.00,Wunderground v.1.13,2013-06-28 09:49:00,
2013-06-28 04:50:00,67.0,57.7,29.67,WNW,287,8.0,8.0,72,0.00,,,0.00,Wunderground v.1.13,2013-06-28 09:50:00,
2013-06-28 04:51:00,66.9,57.6,29.67,West,272,7.0,8.0,72,0.00,,,0.00,Wunderground v.1.13,2013-06-28 09:51:00,
2013-06-28 04:53:00,66.8,57.5,29.67,West,265,7.0,8.0,72,0.00,,,0.00,Wunderground v.1.13,2013-06-28 09:53:00,
2013-06-28 04:55:00,66.8,57.5,29.67,West,263,7.0,7.0,72,0.00,,,0.00,Wunderground v.1.13,2013-06-28 09:55:00,
2013-06-28 04:56:00,66.7,57.4,29.67,West,259,7.0,7.0,72,0.00,,,0.00,Wunderground v.1.13,2013-06-28 09:56:00,
2013-06-28 04:58:00,66.7,57.8,29.67,West,261,7.0,9.0,73,0.00,,,0.00,Wunderground v.1.13,2013-06-28 09:58:00,
2013-06-28 04:59:00,66.6,57.7,29.67,West,259,7.0,9.0,73,0.00,,,0.00,Wunderground v.1.13,2013-06-28 09:59:00,
2013-06-28 05:00:00,66.6,57.7,29.67,West,270,6.0,7.0,73,0.00,,,0.00,Wunderground v.1.13,2013-06-28 10:00:00,
2013-06-28 05:04:00,66.5,57.6,29.67,WNW,282,6.0,9.0,73,0.00,,,0.00,Wunderground v.1.13,2013-06-28 10:04:00,
2013-06-28 05:05:00,66.4,57.5,29.67,West,271,6.0,6.0,73,0.00,,,0.00,Wunderground v.1.13,2013-06-28 10:05:00,
2013-06-28 05:08:00,66.4,57.5,29.67,West,261,6.0,9.0,73,0.00,,,0.00,Wunderground v.1.13,2013-06-28 10:08:00,
2013-06-28 05:09:00,66.4,57.5,29.67,WSW,246,6.0,10.0,73,0.00,,,0.00,Wunderground v.1.13,2013-06-28 10:09:00,
2013-06-28 05:10:00,66.3,57.4,29.67,West,281,7.0,7.0,73,0.00,,,0.00,Wunderground v.1.13,2013-06-28 10:10:00,
2013-06-28 05:12:00,66.3,57.4,29.67,WSW,247,7.0,7.0,73,0.00,,,0.00,Wunderground v.1.13,2013-06-28 10:12:00,
2013-06-28 05:13:00,66.3,57.4,29.67,West,262,7.0,7.0,73,0.00,,,0.00,Wunderground v.1.13,2013-06-28 10:13:00,
2013-06-28 05:17:00,66.2,57.3,29.67,West,264,7.0,8.0,73,0.00,,,0.00,Wunderground v.1.13,2013-06-28 10:17:00,
2013-06-28 05:18:00,66.2,57.3,29.67,West,264,6.0,8.0,73,0.00,,,0.00,Wunderground v.1.13,2013-06-28 10:18:00,
2013-06-28 05:20:00,66.1,57.2,29.67,West,259,6.0,6.0,73,0.00,,,0.00,Wunderground v.1.13,2013-06-28 10:20:00,
2013-06-28 05:23:00,66.1,57.2,29.67,West,260,6.0,8.0,73,0.00,,,0.00,Wunderground v.1.13,2013-06-28 10:23:00,
2013-06-28 05:24:00,66.0,57.1,29.67,WSW,254,6.0,8.0,73,0.00,,,0.00,Wunderground v.1.13,2013-06-28 10:24:00,
2013-06-28 05:26:00,66.0,57.1,29.67,West,265,7.0,11.0,73,0.00,,,0.00,Wunderground v.1.13,2013-06-28 10:26:00,
2013-06-28 05:29:00,66.0,57.1,29.67,West,263,7.0,11.0,73,0.00,,,0.00,Wunderground v.1.13,2013-06-28 10:29:00,
2013-06-28 05:30:00,66.1,57.2,29.67,WSW,253,7.0,7.0,73,0.00,,,0.00,Wunderground v.1.13,2013-06-28 10:30:00,
2013-06-28 05:31:00,66.1,57.2,29.67,West,278,7.0,7.0,73,0.00,,,0.00,Wunderground v.1.13,2013-06-28 10:31:00,
2013-06-28 05:34:00,66.1,57.2,29.67,WSW,249,7.0,10.0,73,0.00,,,0.00,Wunderground v.1.13,2013-06-28 10:34:00,
2013-06-28 05:35:00,66.1,57.2,29.66,West,274,7.0,7.0,73,0.00,,,0.00,Wunderground v.1.13,2013-06-28 10:35:00,
2013-06-28 05:37:00,66.2,57.3,29.67,SW,232,7.0,9.0,73,0.00,,,0.00,Wunderground v.1.13,2013-06-28 10:37:00,
2013-06-28 05:39:00,66.2,57.3,29.66,West,259,7.0,10.0,73,0.00,,,0.00,Wunderground v.1.13,2013-06-28 10:39:00,
2013-06-28 05:40:00,66.2,57.3,29.66,West,280,7.0,10.0,73,0.00,,,0.00,Wunderground v.1.13,2013-06-28 10:40:00,
2013-06-28 05:42:00,66.3,57.4,29.66,WSW,254,7.0,10.0,73,0.00,,,0.00,Wunderground v.1.13,2013-06-28 10:42:00,
2013-06-28 05:45:00,66.3,57.4,29.66,WSW,246,8.0,8.0,73,0.00,,,0.00,Wunderground v.1.13,2013-06-28 10:45:00,
2013-06-28 05:48:00,66.3,57.4,29.67,West,263,8.0,9.0,73,0.00,,,0.00,Wunderground v.1.13,2013-06-28 10:48:00,
2013-06-28 05:50:00,66.2,57.3,29.67,WNW,288,7.0,7.0,73,0.00,,,0.00,Wunderground v.1.13,2013-06-28 10:50:00,
2013-06-28 05:52:00,66.2,57.3,29.67,WSW,252,7.0,7.0,73,0.00,,,0.00,Wunderground v.1.13,2013-06-28 10:52:00,
2013-06-28 05:55:00,66.1,57.2,29.67,WSW,249,7.0,7.0,73,0.00,,,0.00,Wunderground v.1.13,2013-06-28 10:55:00,
2013-06-28 05:56:00,66.1,57.2,29.67,WSW,245,7.0,7.0,73,0.00,,,0.00,Wunderground v.1.13,2013-06-28 10:56:00,
2013-06-28 05:58:00,66.1,57.2,29.67,West,265,7.0,7.0,73,0.00,,,0.00,Wunderground v.1.13,2013-06-28 10:58:00,
2013-06-28 06:00:00,66.1,57.2,29.67,West,271,6.0,6.0,73,0.00,,,0.00,Wunderground v.1.13,2013-06-28 11:00:00,
2013-06-28 06:01:00,66.1,57.2,29.67,WSW,254,6.0,8.0,73,0.00,,,0.00,Wunderground v.1.13,2013-06-28 11:01:00,
2013-06-28 06:04:00,66.1,57.2,29.67,WSW,250,7.0,10.0,73,0.00,,,0.00,Wunderground v.1.13,2013-06-28 11:04:00,
2013-06-28 06:06:00,66.2,57.3,29.67,West,280,7.0,9.0,73,0.00,,,0.00,Wunderground v.1.13,2013-06-28 11:06:00,
2013-06-28 06:10:00,66.3,57.4,29.67,WSW,250,8.0,8.0,73,0.00,,,0.00,Wunderground v.1.13,2013-06-28 11:10:00,
2013-06-28 06:12:00,66.3,57.4,29.67,WNW,287,7.0,8.0,73,0.00,,,0.00,Wunderground v.1.13,2013-06-28 11:12:00,
2013-06-28 06:13:00,66.3,57.4,29.67,West,270,8.0,8.0,73,0.00,,,0.00,Wunderground v.1.13,2013-06-28 11:13:00,
2013-06-28 06:14:00,66.3,57.4,29.67,West,270,7.0,8.0,73,0.00,,,0.00,Wunderground v.1.13,2013-06-28 11:14:00,
2013-06-28 06:18:00,66.3,57.4,29.67,WSW,238,7.0,12.0,73,0.00,,,0.00,Wunderground v.1.13,2013-06-28 11:18:00,
2013-06-28 06:20:00,66.3,57.4,29.67,West,271,7.0,7.0,73,0.00,,,0.00,Wunderground v.1.13,2013-06-28 11:20:00,
2013-06-28 06:22:00,66.4,57.5,29.67,WSW,255,7.0,7.0,73,0.00,,,0.00,Wunderground v.1.13,2013-06-28 11:22:00,
2013-06-28 06:25:00,66.5,57.6,29.67,SW,219,7.0,10.0,73,0.00,,,0.00,Wunderground v.1.13,2013-06-28 11:25:00,
2013-06-28 06:26:00,66.5,57.6,29.67,WSW,242,7.0,10.0,73,0.00,,,0.00,Wunderground v.1.13,2013-06-28 11:26:00,
2013-06-28 06:28:00,66.4,57.5,29.67,SW,235,7.0,11.0,73,0.00,,,0.00,Wunderground v.1.13,2013-06-28 11:28:00,
2013-06-28 06:31:00,66.4,57.5,29.67,West,269,7.0,10.0,73,0.00,,,0.00,Wunderground v.1.13,2013-06-28 11:31:00,
2013-06-28 06:34:00,66.4,57.5,29.67,West,280,7.0,10.0,73,0.00,,,0.00,Wunderground v.1.13,2013-06-28 11:34:00,
2013-06-28 06:35:00,66.3,57.4,29.67,West,263,7.0,7.0,73,0.00,,,0.00,Wunderground v.1.13,2013-06-28 11:35:00,
2013-06-28 06:37:00,66.3,57.4,29.67,WNW,285,7.0,9.0,73,0.00,,,0.00,Wunderground v.1.13,2013-06-28 11:37:00,
2013-06-28 06:38:00,66.3,57.4,29.67,West,275,7.0,9.0,73,0.00,,,0.00,Wunderground v.1.13,2013-06-28 11:38:00,
2013-06-28 06:41:00,66.2,57.3,29.67,West,279,7.0,11.0,73,0.00,,,0.00,Wunderground v.1.13,2013-06-28 11:41:00,
2013-06-28 06:43:00,66.1,57.2,29.67,West,265,7.0,11.0,73,0.00,,,0.00,Wunderground v.1.13,2013-06-28 11:43:00,
2013-06-28 06:44:00,66.1,57.2,29.67,West,269,7.0,11.0,73,0.00,,,0.00,Wunderground v.1.13,2013-06-28 11:44:00,
2013-06-28 06:46:00,66.1,57.2,29.67,West,279,7.0,8.0,73,0.00,,,0.00,Wunderground v.1.13,2013-06-28 11:46:00,
2013-06-28 06:47:00,66.1,57.2,29.67,West,275,8.0,8.0,73,0.00,,,0.00,Wunderground v.1.13,2013-06-28 11:47:00,
2013-06-28 06:50:00,66.2,57.3,29.67,WNW,299,7.0,8.0,73,0.00,,,0.00,Wunderground v.1.13,2013-06-28 11:50:00,
2013-06-28 06:51:00,66.2,57.3,29.67,West,271,8.0,11.0,73,0.00,,,0.00,Wunderground v.1.13,2013-06-28 11:51:00,
2013-06-28 06:53:00,66.3,57.4,29.67,West,267,7.0,11.0,73,0.00,,,0.00,Wunderground v.1.13,2013-06-28 11:53:00,
2013-06-28 06:55:00,66.5,57.6,29.67,WSW,257,8.0,8.0,73,0.00,,,0.00,Wunderground v.1.13,2013-06-28 11:55:00,
2013-06-28 06:56:00,66.5,57.2,29.68,West,272,8.0,8.0,72,0.00,,,0.00,Wunderground v.1.13,2013-06-28 11:56:00,
2013-06-28 06:57:00,66.5,57.2,29.68,West,263,8.0,8.0,72,0.00,,,0.00,Wunderground v.1.13,2013-06-28 11:57:00,
2013-06-28 06:58:00,66.5,57.2,29.68,West,259,8.0,8.0,72,0.00,,,0.00,Wunderground v.1.13,2013-06-28 11:58:00,
2013-06-28 06:59:00,66.5,57.2,29.68,West,277,8.0,8.0,72,0.00,,,0.00,Wunderground v.1.13,2013-06-28 11:59:00,
2013-06-28 07:03:00,66.4,57.5,29.67,WNW,287,8.0,10.0,73,0.00,,,0.00,Wunderground v.1.13,2013-06-28 12:03:00,
2013-06-28 07:04:00,66.4,57.5,29.68,West,263,9.0,10.0,73,0.00,,,0.00,Wunderground v.1.13,2013-06-28 12:04:00,
2013-06-28 07:06:00,66.4,57.5,29.68,WNW,291,8.0,8.0,73,0.00,,,0.00,Wunderground v.1.13,2013-06-28 12:06:00,
2013-06-28 07:08:00,66.3,57.4,29.68,West,273,8.0,8.0,73,0.00,,,0.00,Wunderground v.1.13,2013-06-28 12:08:00,
2013-06-28 07:09:00,66.3,57.4,29.68,West,277,8.0,10.0,73,0.00,,,0.00,Wunderground v.1.13,2013-06-28 12:09:00,
2013-06-28 07:10:00,66.2,57.3,29.68,West,265,8.0,9.0,73,0.00,,,0.00,Wunderground v.1.13,2013-06-28 12:10:00,
2013-06-28 07:13:00,66.2,57.3,29.68,WSW,240,8.0,9.0,73,0.00,,,0.00,Wunderground v.1.13,2013-06-28 12:13:00,
2013-06-28 07:14:00,66.2,57.3,29.68,West,259,8.0,9.0,73,0.00,,,0.00,Wunderground v.1.13,2013-06-28 12:14:00,
2013-06-28 07:17:00,66.3,57.4,29.68,West,273,8.0,13.0,73,0.00,,,0.00,Wunderground v.1.13,2013-06-28 12:17:00,
2013-06-28 07:19:00,66.4,57.9,29.68,West,263,9.0,13.0,74,0.00,,,0.00,Wunderground v.1.13,2013-06-28 12:19:00,
2013-06-28 07:22:00,66.6,57.7,29.67,WSW,252,9.0,10.0,73,0.00,,,0.00,Wunderground v.1.13,2013-06-28 12:22:00,
2013-06-28 07:24:00,66.7,57.8,29.68,WSW,250,9.0,13.0,73,0.00,,,0.00,Wunderground v.1.13,2013-06-28 12:24:00,
2013-06-28 07:26:00,66.8,57.9,29.67,West,267,9.0,9.0,73,0.00,,,0.00,Wunderground v.1.13,2013-06-28 12:26:00,
2013-06-28 07:28:00,66.9,58.0,29.67,WSW,254,9.0,9.0,73,0.00,,,0.00,Wunderground v.1.13,2013-06-28 12:28:00,
2013-06-28 07:30:00,67.0,57.7,29.68,NW,304,8.0,10.0,72,0.00,,,0.00,Wunderground v.1.13,2013-06-28 12:30:00,
2013-06-28 07:31:00,67.0,57.7,29.68,WSW,248,8.0,10.0,72,0.00,,,0.00,Wunderground v.1.13,2013-06-28 12:31:00,
2013-06-28 07:33:00,67.0,58.1,29.68,West,269,8.0,10.0,73,0.00,,,0.00,Wunderground v.1.13,2013-06-28 12:33:00,
2013-06-28 07:37:00,66.9,58.0,29.68,West,265,8.0,10.0,73,0.00,,,0.00,Wunderground v.1.13,2013-06-28 12:37:00,
2013-06-28 07:38:00,66.9,58.0,29.68,WSW,254,8.0,10.0,73,0.00,,,0.00,Wunderground v.1.13,2013-06-28 12:38:00,
2013-06-28 07:39:00,66.9,58.0,29.68,West,259,8.0,12.0,73,0.00,,,0.00,Wunderground v.1.13,2013-06-28 12:39:00,
2013-06-28 07:42:00,66.9,58.0,29.68,North,360,8.0,10.0,73,0.00,,,0.00,Wunderground v.1.13,2013-06-28 12:42:00,
2013-06-28 07:43:00,66.9,58.0,29.67,WSW,238,8.0,10.0,73,0.00,,,0.00,Wunderground v.1.13,2013-06-28 12:43:00,
2013-06-28 07:46:00,66.9,57.6,29.67,WSW,248,9.0,11.0,72,0.00,,,0.00,Wunderground v.1.13,2013-06-28 12:46:00,
2013-06-28 07:47:00,66.9,58.0,29.67,WSW,258,8.0,11.0,73,0.00,,,0.00,Wunderground v.1.13,2013-06-28 12:47:00,
2013-06-28 07:49:00,66.8,57.5,29.68,WSW,257,9.0,11.0,72,0.00,,,0.00,Wunderground v.1.13,2013-06-28 12:49:00,
2013-06-28 07:50:00,66.8,57.9,29.67,West,281,9.0,9.0,73,0.00,,,0.00,Wunderground v.1.13,2013-06-28 12:50:00,
2013-06-28 07:53:00,66.8,57.9,29.68,West,281,9.0,10.0,73,0.00,,,0.00,Wunderground v.1.13,2013-06-28 12:53:00,
2013-06-28 07:55:00,66.8,57.9,29.68,West,277,9.0,9.0,73,0.00,,,0.00,Wunderground v.1.13,2013-06-28 12:55:00,
2013-06-28 07:56:00,66.8,57.9,29.68,West,261,9.0,9.0,73,0.00,,,0.00,Wunderground v.1.13,2013-06-28 12:56:00,
2013-06-28 07:58:00,66.8,57.9,29.68,West,263,9.0,10.0,73,0.00,,,0.00,Wunderground v.1.13,2013-06-28 12:58:00,
2013-06-28 08:02:00,66.8,57.9,29.68,West,260,9.0,10.0,73,0.00,,,0.00,Wunderground v.1.13,2013-06-28 13:02:00,
2013-06-28 08:03:00,66.8,57.9,29.68,West,268,9.0,10.0,73,0.00,,,0.00,Wunderground v.1.13,2013-06-28 13:03:00,
2013-06-28 08:05:00,66.9,58.0,29.68,West,261,9.0,13.0,73,0.00,,,0.00,Wunderground v.1.13,2013-06-28 13:05:00,
2013-06-28 08:06:00,67.0,58.1,29.68,West,272,8.0,13.0,73,0.00,,,0.00,Wunderground v.1.13,2013-06-28 13:06:00,
2013-06-28 08:10:00,67.3,58.3,29.68,WNW,284,9.0,9.0,73,0.00,,,0.00,Wunderground v.1.13,2013-06-28 13:10:00,
2013-06-28 08:12:00,67.5,58.5,29.67,West,265,9.0,11.0,73,0.00,,,0.00,Wunderground v.1.13,2013-06-28 13:12:00,
2013-06-28 08:14:00,67.6,58.2,29.68,West,276,10.0,22.0,72,0.00,,,0.00,Wunderground v.1.13,2013-06-28 13:14:00,
2013-06-28 08:17:00,67.7,58.3,29.67,WSW,250,10.0,11.0,72,0.00,,,0.00,Wunderground v.1.13,2013-06-28 13:17:00,
2013-06-28 08:18:00,67.7,58.3,29.68,WSW,257,10.0,11.0,72,0.00,,,0.00,Wunderground v.1.13,2013-06-28 13:18:00,
2013-06-28 08:19:00,67.8,58.4,29.68,West,259,10.0,11.0,72,0.00,,,0.00,Wunderground v.1.13,2013-06-28 13:19:00,
2013-06-28 08:22:00,67.8,58.1,29.67,West,261,10.0,12.0,71,0.00,,,0.00,Wunderground v.1.13,2013-06-28 13:22:00,
2013-06-28 08:23:00,67.8,58.4,29.67,West,272,10.0,12.0,72,0.00,,,0.00,Wunderground v.1.13,2013-06-28 13:23:00,
2013-06-28 08:24:00,67.8,58.1,29.68,West,265,9.0,12.0,71,0.00,,,0.00,Wunderground v.1.13,2013-06-28 13:24:00,
2013-06-28 08:26:00,67.9,58.5,29.67,NE,56,9.0,9.0,72,0.00,,,0.00,Wunderground v.1.13,2013-06-28 13:26:00,
2013-06-28 08:30:00,68.3,58.9,29.68,West,273,9.0,9.0,72,0.00,,,0.00,Wunderground v.1.13,2013-06-28 13:30:00,
2013-06-28 08:31:00,68.3,58.5,29.68,West,273,9.0,11.0,71,0.00,,,0.00,Wunderground v.1.13,2013-06-28 13:31:00,
2013-06-28 08:32:00,68.3,58.5,29.68,WSW,256,9.0,11.0,71,0.00,,,0.00,Wunderground v.1.13,2013-06-28 13:32:00,
2013-06-28 08:33:00,68.4,58.6,29.68,WNW,286,9.0,11.0,71,0.00,,,0.00,Wunderground v.1.13,2013-06-28 13:33:00,
2013-06-28 08:36:00,68.4,58.6,29.68,WSW,257,9.0,11.0,71,0.00,,,0.00,Wunderground v.1.13,2013-06-28 13:36:00,
2013-06-28 08:37:00,68.4,58.6,29.68,West,264,8.0,12.0,71,0.00,,,0.00,Wunderground v.1.13,2013-06-28 13:37:00,
2013-06-28 08:39:00,68.4,58.6,29.68,West,271,9.0,12.0,71,0.00,,,0.00,Wunderground v.1.13,2013-06-28 13:39:00,
2013-06-28 08:40:00,68.5,58.7,29.67,WSW,244,9.0,11.0,71,0.00,,,0.00,Wunderground v.1.13,2013-06-28 13:40:00,
2013-06-28 08:44:00,68.2,58.4,29.67,WSW,250,9.0,15.0,71,0.00,,,0.00,Wunderground v.1.13,2013-06-28 13:44:00,
2013-06-28 08:46:00,68.1,58.3,29.67,WSW,250,9.0,11.0,71,0.00,,,0.00,Wunderground v.1.13,2013-06-28 13:46:00,
2013-06-28 08:47:00,68.0,58.2,29.67,WNW,282,9.0,11.0,71,0.00,,,0.00,Wunderground v.1.13,2013-06-28 13:47:00,
2013-06-28 08:51:00,67.9,58.5,29.68,WSW,243,9.0,10.0,72,0.00,,,0.00,Wunderground v.1.13,2013-06-28 13:51:00,
2013-06-28 08:52:00,67.9,58.5,29.68,WSW,248,9.0,10.0,72,0.00,,,0.00,Wunderground v.1.13,2013-06-28 13:52:00,
2013-06-28 08:53:00,68.0,58.6,29.68,West,276,9.0,10.0,72,0.00,,,0.00,Wunderground v.1.13,2013-06-28 13:53:00,
2013-06-28 08:55:00,68.1,59.1,29.68,WSW,254,9.0,9.0,73,0.00,,,0.00,Wunderground v.1.13,2013-06-28 13:55:00,
2013-06-28 08:57:00,68.3,58.9,29.68,WSW,250,8.0,9.0,72,0.00,,,0.00,Wunderground v.1.13,2013-06-28 13:57:00,
2013-06-28 08:58:00,68.3,58.5,29.68,West,273,8.0,10.0,71,0.00,,,0.00,Wunderground v.1.13,2013-06-28 13:58:00,
2013-06-28 08:59:00,68.3,58.5,29.68,WNW,290,8.0,10.0,71,0.00,,,0.00,Wunderground v.1.13,2013-06-28 13:59:00,
2013-06-28 09:02:00,68.4,58.6,29.68,WSW,254,8.0,9.0,71,0.00,,,0.00,Wunderground v.1.13,2013-06-28 14:02:00,
2013-06-28 09:03:00,68.4,59.0,29.68,West,260,8.0,11.0,72,0.00,,,0.00,Wunderground v.1.13,2013-06-28 14:03:00,
2013-06-28 09:04:00,68.4,59.0,29.68,WSW,251,8.0,11.0,72,0.00,,,0.00,Wunderground v.1.13,2013-06-28 14:04:00,
2013-06-28 09:05:00,68.5,58.7,29.68,West,261,8.0,14.0,71,0.00,,,0.00,Wunderground v.1.13,2013-06-28 14:05:00,
2013-06-28 09:08:00,68.4,58.6,29.68,WSW,253,9.0,14.0,71,0.00,,,0.00,Wunderground v.1.13,2013-06-28 14:08:00,
2013-06-28 09:10:00,68.3,58.5,29.68,WSW,258,10.0,10.0,71,0.00,,,0.00,Wunderground v.1.13,2013-06-28 14:10:00,
2013-06-28 09:13:00,68.2,58.4,29.68,West,261,9.0,10.0,71,0.00,,,0.00,Wunderground v.1.13,2013-06-28 14:13:00,
2013-06-28 09:15:00,68.2,58.8,29.68,West,274,9.0,9.0,72,0.00,,,0.00,Wunderground v.1.13,2013-06-28 14:15:00,
2013-06-28 09:16:00,68.3,58.9,29.68,WNW,298,8.0,9.0,72,0.00,,,0.00,Wunderground v.1.13,2013-06-28 14:16:00,
2013-06-28 09:19:00,68.4,59.0,29.68,West,263,7.0,11.0,72,0.00,,,0.00,Wunderground v.1.13,2013-06-28 14:19:00,
2013-06-28 09:22:00,68.3,58.5,29.68,WNW,283,7.0,13.0,71,0.00,,,0.00,Wunderground v.1.13,2013-06-28 14:22:00,
2013-06-28 09:24:00,68.2,58.4,29.68,West,260,8.0,13.0,71,0.00,,,0.00,Wunderground v.1.13,2013-06-28 14:24:00,
2013-06-28 09:25:00,68.2,58.8,29.68,West,266,8.0,10.0,72,0.00,,,0.00,Wunderground v.1.13,2013-06-28 14:25:00,
2013-06-28 09:27:00,68.1,58.7,29.68,WNW,286,9.0,15.0,72,0.00,,,0.00,Wunderground v.1.13,2013-06-28 14:27:00,
2013-06-28 09:30:00,68.2,58.8,29.68,WSW,242,10.0,10.0,72,0.00,,,0.00,Wunderground v.1.13,2013-06-28 14:30:00,
2013-06-28 09:33:00,68.2,58.8,29.68,NW,324,10.0,14.0,72,0.00,,,0.00,Wunderground v.1.13,2013-06-28 14:33:00,
2013-06-28 09:36:00,68.2,58.8,29.69,WSW,254,9.0,10.0,72,0.00,,,0.00,Wunderground v.1.13,2013-06-28 14:36:00,
2013-06-28 09:37:00,68.2,58.8,29.69,West,274,9.0,10.0,72,0.00,,,0.00,Wunderground v.1.13,2013-06-28 14:37:00,
2013-06-28 09:38:00,68.3,58.9,29.69,NW,316,9.0,10.0,72,0.00,,,0.00,Wunderground v.1.13,2013-06-28 14:38:00,
2013-06-28 09:43:00,68.3,58.9,29.69,West,281,9.0,10.0,72,0.00,,,0.00,Wunderground v.1.13,2013-06-28 14:43:00,
2013-06-28 09:44:00,68.4,59.0,29.69,West,272,8.0,10.0,72,0.00,,,0.00,Wunderground v.1.13,2013-06-28 14:44:00,
2013-06-28 09:45:00,68.4,59.0,29.69,WNW,284,8.0,8.0,72,0.00,,,0.00,Wunderground v.1.13,2013-06-28 14:45:00,
2013-06-28 09:47:00,68.4,59.0,29.69,West,275,8.0,11.0,72,0.00,,,0.00,Wunderground v.1.13,2013-06-28 14:47:00,
2013-06-28 09:50:00,68.5,59.1,29.69,WSW,244,7.0,7.0,72,0.00,,,0.00,Wunderground v.1.13,2013-06-28 14:50:00,
2013-06-28 09:51:00,68.6,59.2,29.69,WSW,249,7.0,7.0,72,0.00,,,0.00,Wunderground v.1.13,2013-06-28 14:51:00,
2013-06-28 09:53:00,68.7,59.3,29.68,WSW,237,7.0,9.0,72,0.00,,,0.00,Wunderground v.1.13,2013-06-28 14:53:00,
2013-06-28 09:55:00,68.8,59.0,29.68,West,272,8.0,8.0,71,0.00,,,0.00,Wunderground v.1.13,2013-06-28 14:55:00,
2013-06-28 09:57:00,69.0,59.6,29.68,SW,229,7.0,9.0,72,0.00,,,0.00,Wunderground v.1.13,2013-06-28 14:57:00,
2013-06-28 10:00:00,69.2,59.4,29.68,West,263,7.0,9.0,71,0.00,,,0.00,Wunderground v.1.13,2013-06-28 15:00:00,
2013-06-28 10:02:00,69.2,59.4,29.68,WNW,288,7.0,9.0,71,0.00,,,0.00,Wunderground v.1.13,2013-06-28 15:02:00,
2013-06-28 10:03:00,69.2,59.4,29.69,NW,324,7.0,9.0,71,0.00,,,0.00,Wunderground v.1.13,2013-06-28 15:03:00,
2013-06-28 10:05:00,69.2,59.4,29.69,West,273,6.0,8.0,71,0.00,,,0.00,Wunderground v.1.13,2013-06-28 15:05:00,
2013-06-28 10:09:00,69.2,59.4,29.69,WNW,295,7.0,13.0,71,0.00,,,0.00,Wunderground v.1.13,2013-06-28 15:09:00,
2013-06-28 10:11:00,69.3,59.9,29.69,West,261,7.0,10.0,72,0.00,,,0.00,Wunderground v.1.13,2013-06-28 15:11:00,
2013-06-28 10:14:00,69.4,59.6,29.69,WSW,241,8.0,12.0,71,0.00,,,0.00,Wunderground v.1.13,2013-06-28 15:14:00,
2013-06-28 10:17:00,69.6,59.4,29.68,West,272,8.0,11.0,70,0.00,,,0.00,Wunderground v.1.13,2013-06-28 15:17:00,
2013-06-28 10:18:00,69.7,59.5,29.69,WSW,252,8.0,11.0,70,0.00,,,0.00,Wunderground v.1.13,2013-06-28 15:18:00,
2013-06-28 10:22:00,69.9,60.1,29.68,West,274,8.0,8.0,71,0.00,,,0.00,Wunderground v.1.13,2013-06-28 15:22:00,
2013-06-28 10:24:00,70.1,60.3,29.68,West,271,8.0,8.0,71,0.00,,,0.00,Wunderground v.1.13,2013-06-28 15:24:00,
2013-06-28 10:25:00,70.3,60.4,29.68,West,263,7.0,8.0,71,0.00,,,0.00,Wunderground v.1.13,2013-06-28 15:25:00,
2013-06-28 10:28:00,70.5,60.2,29.68,WSW,241,8.0,12.0,70,0.00,,,0.00,Wunderground v.1.13,2013-06-28 15:28:00,
2013-06-28 10:29:00,70.5,59.8,29.68,WSW,248,8.0,18.0,69,0.00,,,0.00,Wunderground v.1.13,2013-06-28 15:29:00,
2013-06-28 10:31:00,70.4,59.7,29.68,West,269,9.0,11.0,69,0.00,,,0.00,Wunderground v.1.13,2013-06-28 15:31:00,
2013-06-28 10:33:00,70.2,59.6,29.68,West,265,9.0,14.0,69,0.00,,,0.00,Wunderground v.1.13,2013-06-28 15:33:00,
2013-06-28 10:35:00,70.1,59.9,29.68,SSW,209,10.0,10.0,70,0.00,,,0.00,Wunderground v.1.13,2013-06-28 15:35:00,
2013-06-28 10:36:00,70.0,59.8,29.68,WNW,301,10.0,10.0,70,0.00,,,0.00,Wunderground v.1.13,2013-06-28 15:36:00,
2013-06-28 10:37:00,69.9,59.7,29.68,West,263,10.0,10.0,70,0.00,,,0.00,Wunderground v.1.13,2013-06-28 15:37:00,
2013-06-28 10:39:00,69.9,59.7,29.68,West,264,10.0,10.0,70,0.00,,,0.00,Wunderground v.1.13,2013-06-28 15:39:00,
2013-06-28 10:42:00,70.1,59.9,29.68,WSW,245,9.0,11.0,70,0.00,,,0.00,Wunderground v.1.13,2013-06-28 15:42:00,
2013-06-28 10:45:00,70.0,59.8,29.68,West,279,9.0,9.0,70,0.00,,,0.00,Wunderground v.1.13,2013-06-28 15:45:00,
2013-06-28 10:46:00,70.0,60.2,29.68,WNW,302,9.0,9.0,71,0.00,,,0.00,Wunderground v.1.13,2013-06-28 15:46:00,
2013-06-28 10:49:00,69.9,59.7,29.68,West,279,8.0,9.0,70,0.00,,,0.00,Wunderground v.1.13,2013-06-28 15:49:00,
2013-06-28 10:51:00,69.8,59.6,29.68,WNW,287,8.0,8.0,70,0.00,,,0.00,Wunderground v.1.13,2013-06-28 15:51:00,
2013-06-28 10:53:00,69.7,59.5,29.68,West,261,8.0,8.0,70,0.00,,,0.00,Wunderground v.1.13,2013-06-28 15:53:00,
2013-06-28 10:59:00,69.4,59.2,29.69,West,270,9.0,14.0,70,0.00,,,0.00,Wunderground v.1.13,2013-06-28 15:59:00,
2013-06-28 11:00:00,69.4,59.6,29.69,West,279,9.0,9.0,71,0.00,,,0.00,Wunderground v.1.13,2013-06-28 16:00:00,
2013-06-28 11:02:00,69.5,59.7,29.69,WSW,252,8.0,9.0,71,0.00,,,0.00,Wunderground v.1.13,2013-06-28 16:02:00,
2013-06-28 11:05:00,69.9,60.5,29.69,North,5,8.0,12.0,72,0.00,,,0.00,Wunderground v.1.13,2013-06-28 16:05:00,
2013-06-28 11:06:00,70.1,60.3,29.69,WSW,252,7.0,12.0,71,0.00,,,0.00,Wunderground v.1.13,2013-06-28 16:06:00,
2013-06-28 11:07:00,70.3,60.1,29.69,WSW,255,7.0,12.0,70,0.00,,,0.00,Wunderground v.1.13,2013-06-28 16:07:00,
2013-06-28 11:08:00,70.7,60.4,29.69,North,355,7.0,12.0,70,0.00,,,0.00,Wunderground v.1.13,2013-06-28 16:08:00,
2013-06-28 11:09:00,70.8,60.5,29.69,West,259,7.0,12.0,70,0.00,,,0.00,Wunderground v.1.13,2013-06-28 16:09:00,
2013-06-28 11:12:00,71.3,60.6,29.69,SW,221,8.0,10.0,69,0.00,,,0.00,Wunderground v.1.13,2013-06-28 16:12:00,
2013-06-28 11:15:00,71.4,60.3,29.69,West,281,9.0,9.0,68,0.00,,,0.00,Wunderground v.1.13,2013-06-28 16:15:00,
2013-06-28 11:18:00,71.2,60.1,29.69,WSW,239,8.0,9.0,68,0.00,,,0.00,Wunderground v.1.13,2013-06-28 16:18:00,
2013-06-28 11:21:00,70.8,60.1,29.69,WSW,256,8.0,8.0,69,0.00,,,0.00,Wunderground v.1.13,2013-06-28 16:21:00,
2013-06-28 11:22:00,70.7,60.0,29.69,West,259,8.0,12.0,69,0.00,,,0.00,Wunderground v.1.13,2013-06-28 16:22:00,
2013-06-28 11:23:00,70.5,59.8,29.69,WSW,255,8.0,12.0,69,0.00,,,0.00,Wunderground v.1.13,2013-06-28 16:23:00,
2013-06-28 11:26:00,70.1,59.9,29.69,WSW,242,8.0,9.0,70,0.00,,,0.00,Wunderground v.1.13,2013-06-28 16:26:00,
2013-06-28 11:28:00,70.2,60.0,29.69,WSW,257,9.0,12.0,70,0.00,,,0.00,Wunderground v.1.13,2013-06-28 16:28:00,
2013-06-28 11:29:00,70.3,59.6,29.69,WNW,292,10.0,14.0,69,0.00,,,0.00,Wunderground v.1.13,2013-06-28 16:29:00,
2013-06-28 11:31:00,70.4,60.1,29.69,WSW,245,10.0,16.0,70,0.00,,,0.00,Wunderground v.1.13,2013-06-28 16:31:00,
2013-06-28 11:35:00,70.5,60.2,29.69,West,275,10.0,10.0,70,0.00,,,0.00,Wunderground v.1.13,2013-06-28 16:35:00,
2013-06-28 11:37:00,70.6,60.3,29.69,WNW,296,9.0,12.0,70,0.00,,,0.00,Wunderground v.1.13,2013-06-28 16:37:00,
2013-06-28 11:40:00,70.9,60.6,29.69,WSW,250,9.0,9.0,70,0.00,,,0.00,Wunderground v.1.13,2013-06-28 16:40:00,
2013-06-28 11:42:00,71.1,60.4,29.69,WSW,253,8.0,9.0,69,0.00,,,0.00,Wunderground v.1.13,2013-06-28 16:42:00,
2013-06-28 11:44:00,71.1,60.4,29.69,West,261,8.0,9.0,69,0.00,,,0.00,Wunderground v.1.13,2013-06-28 16:44:00,
2013-06-28 11:46:00,71.1,60.4,29.69,WNW,292,8.0,15.0,69,0.00,,,0.00,Wunderground v.1.13,2013-06-28 16:46:00,
2013-06-28 11:47:00,71.1,60.0,29.69,West,265,8.0,15.0,68,0.00,,,0.00,Wunderground v.1.13,2013-06-28 16:47:00,
2013-06-28 11:51:00,71.4,60.7,29.69,WSW,241,8.0,13.0,69,0.00,,,0.00,Wunderground v.1.13,2013-06-28 16:51:00,
2013-06-28 11:52:00,71.3,60.2,29.69,WNW,288,9.0,13.0,68,0.00,,,0.00,Wunderground v.1.13,2013-06-28 16:52:00,
2013-06-28 11:54:00,71.1,60.0,29.69,West,264,9.0,13.0,68,0.00,,,0.00,Wunderground v.1.13,2013-06-28 16:54:00,
2013-06-28 11:57:00,70.7,59.6,29.69,West,261,9.0,10.0,68,0.00,,,0.00,Wunderground v.1.13,2013-06-28 16:57:00,
2013-06-28 11:59:00,70.5,59.4,29.70,West,267,9.0,12.0,68,0.00,,,0.00,Wunderground v.1.13,2013-06-28 16:59:00,
2013-06-28 12:01:00,70.5,60.2,29.70,WSW,248,10.0,11.0,70,0.00,,,0.00,Wunderground v.1.13,2013-06-28 17:01:00,
2013-06-28 12:03:00,70.9,60.2,29.69,West,267,10.0,12.0,69,0.00,,,0.00,Wunderground v.1.13,2013-06-28 17:03:00,
2013-06-28 12:04:00,71.1,60.8,29.69,West,269,9.0,12.0,70,0.00,,,0.00,Wunderground v.1.13,2013-06-28 17:04:00,
2013-06-28 12:05:00,71.3,60.2,29.69,West,271,9.0,9.0,68,0.00,,,0.00,Wunderground v.1.13,2013-06-28 17:05:00,
2013-06-28 12:08:00,71.7,60.2,29.69,NNW,338,9.0,9.0,67,0.00,,,0.00,Wunderground v.1.13,2013-06-28 17:08:00,
2013-06-28 12:09:00,71.7,60.2,29.69,West,261,9.0,9.0,67,0.00,,,0.00,Wunderground v.1.13,2013-06-28 17:09:00,
2013-06-28 12:10:00,71.7,60.2,29.69,WNW,283,9.0,9.0,67,0.00,,,0.00,Wunderground v.1.13,2013-06-28 17:10:00,
2013-06-28 12:11:00,71.7,59.7,29.69,West,267,8.0,9.0,66,0.00,,,0.00,Wunderground v.1.13,2013-06-28 17:11:00,
2013-06-28 12:13:00,71.6,60.1,29.69,West,259,8.0,9.0,67,0.00,,,0.00,Wunderground v.1.13,2013-06-28 17:13:00,
2013-06-28 12:17:00,71.3,60.2,29.70,WNW,285,7.0,11.0,68,0.00,,,0.00,Wunderground v.1.13,2013-06-28 17:17:00,
2013-06-28 12:20:00,71.3,60.6,29.69,West,275,7.0,8.0,69,0.00,,,0.00,Wunderground v.1.13,2013-06-28 17:20:00,
2013-06-28 12:21:00,71.3,60.2,29.70,West,273,7.0,8.0,68,0.00,,,0.00,Wunderground v.1.13,2013-06-28 17:21:00,
2013-06-28 12:22:00,71.4,60.7,29.69,West,261,7.0,8.0,69,0.00,,,0.00,Wunderground v.1.13,2013-06-28 17:22:00,
2013-06-28 12:25:00,71.9,60.3,29.69,NNW,345,7.0,12.0,67,0.00,,,0.00,Wunderground v.1.13,2013-06-28 17:25:00,
2013-06-28 12:27:00,72.1,59.7,29.69,WSW,248,8.0,19.0,65,0.00,,,0.00,Wunderground v.1.13,2013-06-28 17:27:00,
2013-06-28 12:32:00,72.0,59.2,29.70,SSW,196,9.0,10.0,64,0.00,,,0.00,Wunderground v.1.13,2013-06-28 17:32:00,
2013-06-28 12:33:00,72.0,59.2,29.70,WSW,253,9.0,10.0,64,0.00,,,0.00,Wunderground v.1.13,2013-06-28 17:33:00,
2013-06-28 12:34:00,72.0,59.2,29.70,NNW,335,9.0,10.0,64,0.00,,,0.00,Wunderground v.1.13,2013-06-28 17:34:00,
2013-06-28 12:35:00,72.0,59.2,29.69,WNW,287,9.0,10.0,64,0.00,,,0.00,Wunderground v.1.13,2013-06-28 17:35:00,
2013-06-28 12:38:00,72.2,59.8,29.69,NW,318,8.0,9.0,65,0.00,,,0.00,Wunderground v.1.13,2013-06-28 17:38:00,
2013-06-28 12:41:00,72.5,59.6,29.69,West,271,6.0,6.0,64,0.00,,,0.00,Wunderground v.1.13,2013-06-28 17:41:00,
2013-06-28 12:42:00,72.5,60.1,29.69,NW,324,6.0,6.0,65,0.00,,,0.00,Wunderground v.1.13,2013-06-28 17:42:00,
2013-06-28 12:43:00,72.7,59.8,29.69,WNW,285,6.0,6.0,64,0.00,,,0.00,Wunderground v.1.13,2013-06-28 17:43:00,
2013-06-28 12:45:00,73.0,59.7,29.70,WSW,246,5.0,9.0,63,0.00,,,0.00,Wunderground v.1.13,2013-06-28 17:45:00,
2013-06-28 12:46:00,73.2,59.4,29.69,NNE,19,5.0,6.0,62,0.00,,,0.00,Wunderground v.1.13,2013-06-28 17:46:00,
2013-06-28 12:48:00,73.6,59.8,29.69,WNW,284,6.0,9.0,62,0.00,,,0.00,Wunderground v.1.13,2013-06-28 17:48:00,
2013-06-28 12:49:00,73.7,60.3,29.69,NW,304,6.0,9.0,63,0.00,,,0.00,Wunderground v.1.13,2013-06-28 17:49:00,
2013-06-28 12:50:00,73.8,60.0,29.69,West,272,6.0,9.0,62,0.00,,,0.00,Wunderground v.1.13,2013-06-28 17:50:00,
2013-06-28 12:51:00,73.9,60.1,29.69,NW,304,6.0,6.0,62,0.00,,,0.00,Wunderground v.1.13,2013-06-28 17:51:00,
2013-06-28 12:52:00,74.0,60.2,29.69,West,270,6.0,6.0,62,0.00,,,0.00,Wunderground v.1.13,2013-06-28 17:52:00,
2013-06-28 12:55:00,73.9,60.1,29.69,WSW,252,6.0,8.0,62,0.00,,,0.00,Wunderground v.1.13,2013-06-28 17:55:00,
2013-06-28 12:57:00,73.7,59.9,29.69,North,350,6.0,7.0,62,0.00,,,0.00,Wunderground v.1.13,2013-06-28 17:57:00,
2013-06-28 12:58:00,73.7,59.9,29.69,NW,318,5.0,13.0,62,0.00,,,0.00,Wunderground v.1.13,2013-06-28 17:58:00,
2013-06-28 12:59:00,73.6,59.8,29.69,NNE,31,6.0,13.0,62,0.00,,,0.00,Wunderground v.1.13,2013-06-28 17:59:00,
2013-06-28 13:01:00,73.7,58.9,29.69,WNW,291,7.0,7.0,60,0.00,,,0.00,Wunderground v.1.13,2013-06-28 18:01:00,
2013-06-28 13:03:00,73.7,58.9,29.69,West,263,7.0,14.0,60,0.00,,,0.00,Wunderground v.1.13,2013-06-28 18:03:00,
2013-06-28 13:05:00,73.7,59.9,29.69,West,260,8.0,8.0,62,0.00,,,0.00,Wunderground v.1.13,2013-06-28 18:05:00,
2013-06-28 13:06:00,73.7,60.3,29.69,West,261,8.0,8.0,63,0.00,,,0.00,Wunderground v.1.13,2013-06-28 18:06:00,
2013-06-28 13:08:00,73.6,59.8,29.69,West,273,8.0,12.0,62,0.00,,,0.00,Wunderground v.1.13,2013-06-28 18:08:00,
2013-06-28 13:10:00,73.3,59.9,29.69,WSW,250,9.0,9.0,63,0.00,,,0.00,Wunderground v.1.13,2013-06-28 18:10:00,
2013-06-28 13:12:00,73.2,59.8,29.69,West,266,9.0,9.0,63,0.00,,,0.00,Wunderground v.1.13,2013-06-28 18:12:00,
2013-06-28 13:14:00,73.1,60.2,29.69,West,269,8.0,9.0,64,0.00,,,0.00,Wunderground v.1.13,2013-06-28 18:14:00,
2013-06-28 13:16:00,73.1,60.2,29.69,West,275,8.0,11.0,64,0.00,,,0.00,Wunderground v.1.13,2013-06-28 18:16:00,
2013-06-28 13:18:00,73.1,60.6,29.69,WSW,252,8.0,11.0,65,0.00,,,0.00,Wunderground v.1.13,2013-06-28 18:18:00,
2013-06-28 13:19:00,73.0,60.5,29.69,West,278,8.0,11.0,65,0.00,,,0.00,Wunderground v.1.13,2013-06-28 18:19:00,
2013-06-28 13:22:00,72.9,60.4,29.69,West,264,8.0,12.0,65,0.00,,,0.00,Wunderground v.1.13,2013-06-28 18:22:00,
2013-06-28 13:23:00,72.9,60.4,29.69,WSW,253,8.0,12.0,65,0.00,,,0.00,Wunderground v.1.13,2013-06-28 18:23:00,
2013-06-28 13:28:00,73.0,61.0,29.69,WSW,258,8.0,9.0,66,0.00,,,0.00,Wunderground v.1.13,2013-06-28 18:28:00,
2013-06-28 13:29:00,73.0,60.5,29.69,West,275,8.0,13.0,65,0.00,,,0.00,Wunderground v.1.13,2013-06-28 18:29:00,
2013-06-28 13:31:00,73.0,59.7,29.69,WSW,256,8.0,8.0,63,0.00,,,0.00,Wunderground v.1.13,2013-06-28 18:31:00,
2013-06-28 13:33:00,72.9,60.0,29.69,West,276,7.0,8.0,64,0.00,,,0.00,Wunderground v.1.13,2013-06-28 18:33:00,
2013-06-28 13:35:00,72.7,59.4,29.69,WNW,299,7.0,10.0,63,0.00,,,0.00,Wunderground v.1.13,2013-06-28 18:35:00,
2013-06-28 13:37:00,72.5,60.1,29.69,NW,320,7.0,8.0,65,0.00,,,0.00,Wunderground v.1.13,2013-06-28 18:37:00,
2013-06-28 13:38:00,72.4,60.8,29.69,NNE,14,7.0,16.0,67,0.00,,,0.00,Wunderground v.1.13,2013-06-28 18:38:00,
2013-06-28 13:39:00,72.2,60.6,29.69,West,270,7.0,16.0,67,0.00,,,0.01,Wunderground v.1.13,2013-06-28 18:39:00,
2013-06-28 13:41:00,71.7,61.4,29.69,WSW,253,7.0,7.0,70,0.00,,,0.01,Wunderground v.1.13,2013-06-28 18:41:00,
2013-06-28 13:44:00,70.9,61.0,29.69,WSW,249,7.0,9.0,71,0.00,,,0.01,Wunderground v.1.13,2013-06-28 18:44:00,
2013-06-28 13:46:00,70.7,61.6,29.69,NW,317,6.0,6.0,73,0.00,,,0.01,Wunderground v.1.13,2013-06-28 18:46:00,
2013-06-28 13:50:00,71.0,62.7,29.69,ESE,115,6.0,6.0,75,0.00,,,0.01,Wunderground v.1.13,2013-06-28 18:50:00,
2013-06-28 13:51:00,71.2,62.1,29.69,WSW,241,6.0,7.0,73,0.00,,,0.01,Wunderground v.1.13,2013-06-28 18:51:00,
2013-06-28 13:53:00,71.7,63.0,29.69,SSW,209,6.0,7.0,74,0.00,,,0.01,Wunderground v.1.13,2013-06-28 18:53:00,
2013-06-28 13:56:00,72.3,62.4,29.68,WSW,256,6.0,8.0,71,0.00,,,0.01,Wunderground v.1.13,2013-06-28 18:56:00,
2013-06-28 13:58:00,72.7,61.1,29.68,WNW,291,6.0,12.0,67,0.00,,,0.01,Wunderground v.1.13,2013-06-28 18:58:00,
2013-06-28 13:59:00,72.9,62.1,29.68,WSW,241,6.0,12.0,69,0.00,,,0.01,Wunderground v.1.13,2013-06-28 18:59:00,
2013-06-28 14:02:00,73.5,61.9,29.68,West,271,6.0,7.0,67,0.00,,,0.01,Wunderground v.1.13,2013-06-28 19:02:00,
2013-06-28 14:03:00,73.8,62.2,29.68,WSW,257,7.0,7.0,67,0.00,,,0.01,Wunderground v.1.13,2013-06-28 19:03:00,
2013-06-28 14:05:00,74.3,62.2,29.68,WSW,240,7.0,7.0,66,0.00,,,0.01,Wunderground v.1.13,2013-06-28 19:05:00,
2013-06-28 14:08:00,74.5,61.1,29.68,West,275,7.0,7.0,63,0.00,,,0.01,Wunderground v.1.13,2013-06-28 19:08:00,
2013-06-28 14:09:00,74.6,61.6,29.68,West,279,6.0,7.0,64,0.00,,,0.01,Wunderground v.1.13,2013-06-28 19:09:00,
2013-06-28 14:14:00,75.2,61.3,29.68,West,269,4.0,6.0,62,0.00,,,0.01,Wunderground v.1.13,2013-06-28 19:14:00,
2013-06-28 14:15:00,75.2,61.3,29.68,WSW,257,3.0,6.0,62,0.00,,,0.01,Wunderground v.1.13,2013-06-28 19:15:00,
2013-06-28 14:17:00,74.9,60.5,29.68,West,271,4.0,10.0,61,0.00,,,0.01,Wunderground v.1.13,2013-06-28 19:17:00,
2013-06-28 14:19:00,74.5,60.2,29.68,West,261,5.0,10.0,61,0.00,,,0.01,Wunderground v.1.13,2013-06-28 19:19:00,
2013-06-28 14:20:00,74.4,61.0,29.68,West,271,5.0,5.0,63,0.00,,,0.01,Wunderground v.1.13,2013-06-28 19:20:00,
2013-06-28 14:21:00,74.4,61.0,29.68,WNW,299,5.0,5.0,63,0.00,,,0.01,Wunderground v.1.13,2013-06-28 19:21:00,
2013-06-28 14:25:00,74.3,60.9,29.68,NW,320,6.0,6.0,63,0.00,,,0.01,Wunderground v.1.13,2013-06-28 19:25:00,
2013-06-28 14:26:00,74.4,61.0,29.68,North,355,6.0,6.0,63,0.00,,,0.01,Wunderground v.1.13,2013-06-28 19:26:00,
2013-06-28 14:31:00,75.2,61.7,29.67,NNE,20,5.0,9.0,63,0.00,,,0.01,Wunderground v.1.13,2013-06-28 19:31:00,
2013-06-28 14:32:00,75.4,61.0,29.67,NW,322,5.0,9.0,61,0.00,,,0.01,Wunderground v.1.13,2013-06-28 19:32:00,
2013-06-28 14:35:00,76.1,61.2,29.67,West,267,6.0,7.0,60,0.00,,,0.01,Wunderground v.1.13,2013-06-28 19:35:00,
2013-06-28 14:37:00,76.4,61.0,29.67,SW,225,6.0,10.0,59,0.00,,,0.01,Wunderground v.1.13,2013-06-28 19:37:00,
2013-06-28 14:38:00,76.4,60.5,29.67,NNE,14,6.0,10.0,58,0.00,,,0.01,Wunderground v.1.13,2013-06-28 19:38:00,
2013-06-28 14:42:00,75.7,59.9,29.67,WNW,292,8.0,8.0,58,0.00,,,0.01,Wunderground v.1.13,2013-06-28 19:42:00,
2013-06-28 14:43:00,75.5,59.7,29.67,North,355,8.0,8.0,58,0.00,,,0.01,Wunderground v.1.13,2013-06-28 19:43:00,
2013-06-28 14:45:00,75.3,60.5,29.67,NNE,31,7.0,8.0,60,0.00,,,0.01,Wunderground v.1.13,2013-06-28 19:45:00,
2013-06-28 14:46:00,75.1,60.7,29.68,NNW,340,7.0,8.0,61,0.00,,,0.01,Wunderground v.1.13,2013-06-28 19:46:00,
2013-06-28 14:51:00,74.2,60.8,29.67,WNW,295,5.0,6.0,63,0.00,,,0.01,Wunderground v.1.13,2013-06-28 19:51:00,
2013-06-28 14:52:00,74.1,61.1,29.67,NW,324,5.0,6.0,64,0.00,,,0.01,Wunderground v.1.13,2013-06-28 19:52:00,
2013-06-28 14:53:00,74.0,61.0,29.67,West,280,4.0,11.0,64,0.00,,,0.01,Wunderground v.1.13,2013-06-28 19:53:00,
2013-06-28 14:54:00,73.9,61.0,29.67,North,10,5.0,11.0,64,0.00,,,0.01,Wunderground v.1.13,2013-06-28 19:54:00,
2013-06-28 14:57:00,73.7,61.6,29.68,NNW,331,4.0,7.0,66,0.00,,,0.01,Wunderground v.1.13,2013-06-28 19:57:00,
2013-06-28 14:59:00,73.7,61.6,29.68,NW,309,4.0,7.0,66,0.00,,,0.01,Wunderground v.1.13,2013-06-28 19:59:00,
2013-06-28 15:00:00,73.7,61.2,29.68,NNE,12,4.0,4.0,65,0.00,,,0.01,Wunderground v.1.13,2013-06-28 20:00:00,
2013-06-28 15:03:00,73.8,61.3,29.68,NNW,327,5.0,11.0,65,0.00,,,0.01,Wunderground v.1.13,2013-06-28 20:03:00,
2013-06-28 15:04:00,73.9,61.4,29.68,NW,321,5.0,11.0,65,0.00,,,0.01,Wunderground v.1.13,2013-06-28 20:04:00,
2013-06-28 15:05:00,73.9,61.8,29.68,NNW,342,5.0,7.0,66,0.00,,,0.01,Wunderground v.1.13,2013-06-28 20:05:00,
2013-06-28 15:07:00,74.0,61.5,29.68,NNW,333,6.0,8.0,65,0.00,,,0.01,Wunderground v.1.13,2013-06-28 20:07:00,
2013-06-28 15:11:00,74.3,61.8,29.68,North,355,4.0,5.0,65,0.00,,,0.01,Wunderground v.1.13,2013-06-28 20:11:00,
2013-06-28 15:12:00,74.3,61.8,29.68,North,5,4.0,7.0,65,0.00,,,0.01,Wunderground v.1.13,2013-06-28 20:12:00,
2013-06-28 15:15:00,74.3,61.8,29.68,WSW,248,5.0,7.0,65,0.00,,,0.01,Wunderground v.1.13,2013-06-28 20:15:00,
2013-06-28 15:16:00,74.3,61.3,29.68,West,274,5.0,7.0,64,0.00,,,0.01,Wunderground v.1.13,2013-06-28 20:16:00,
2013-06-28 15:17:00,74.3,61.8,29.68,WSW,254,4.0,7.0,65,0.00,,,0.01,Wunderground v.1.13,2013-06-28 20:17:00,
2013-06-28 15:19:00,74.5,61.1,29.68,WNW,295,4.0,7.0,63,0.00,,,0.01,Wunderground v.1.13,2013-06-28 20:19:00,
2013-06-28 15:22:00,74.7,60.8,29.68,West,280,5.0,8.0,62,0.00,,,0.01,Wunderground v.1.13,2013-06-28 20:22:00,
2013-06-28 15:23:00,74.8,61.4,29.68,West,272,5.0,8.0,63,0.00,,,0.01,Wunderground v.1.13,2013-06-28 20:23:00,
2013-06-28 15:24:00,74.9,61.5,29.68,NNE,18,5.0,8.0,63,0.00,,,0.01,Wunderground v.1.13,2013-06-28 20:24:00,
2013-06-28 15:26:00,75.1,60.3,29.67,West,270,5.0,7.0,60,0.00,,,0.01,Wunderground v.1.13,2013-06-28 20:26:00,
2013-06-28 15:28:00,75.0,59.7,29.68,WSW,238,6.0,10.0,59,0.00,,,0.01,Wunderground v.1.13,2013-06-28 20:28:00,
2013-06-28 15:30:00,75.1,60.3,29.68,WNW,286,7.0,7.0,60,0.00,,,0.01,Wunderground v.1.13,2013-06-28 20:30:00,
2013-06-28 15:32:00,75.2,60.8,29.68,NW,318,7.0,7.0,61,0.00,,,0.01,Wunderground v.1.13,2013-06-28 20:32:00,
2013-06-28 15:34:00,75.3,60.9,29.67,NNW,347,7.0,8.0,61,0.00,,,0.01,Wunderground v.1.13,2013-06-28 20:34:00,
2013-06-28 15:37:00,75.8,61.4,29.67,West,269,7.0,7.0,61,0.00,,,0.01,Wunderground v.1.13,2013-06-28 20:37:00,
2013-06-28 15:38:00,76.0,62.0,29.67,West,262,6.0,7.0,62,0.00,,,0.01,Wunderground v.1.13,2013-06-28 20:38:00,
2013-06-28 15:41:00,76.5,61.1,29.67,West,276,6.0,6.0,59,0.00,,,0.01,Wunderground v.1.13,2013-06-28 20:41:00,
2013-06-28 15:44:00,76.8,60.9,29.67,WSW,238,5.0,10.0,58,0.00,,,0.01,Wunderground v.1.13,2013-06-28 20:44:00,
2013-06-28 15:45:00,76.9,61.5,29.67,WSW,248,5.0,9.0,59,0.00,,,0.01,Wunderground v.1.13,2013-06-28 20:45:00,
2013-06-28 15:46:00,76.9,61.5,29.67,WNW,282,5.0,9.0,59,0.00,,,0.01,Wunderground v.1.13,2013-06-28 20:46:00,
2013-06-28 15:50:00,77.3,61.4,29.67,WNW,302,6.0,6.0,58,0.00,,,0.01,Wunderground v.1.13,2013-06-28 20:50:00,
2013-06-28 15:52:00,77.4,61.0,29.67,West,273,6.0,9.0,57,0.00,,,0.01,Wunderground v.1.13,2013-06-28 20:52:00,
2013-06-28 15:54:00,77.5,61.6,29.67,WSW,254,6.0,9.0,58,0.00,,,0.01,Wunderground v.1.13,2013-06-28 20:54:00,
2013-06-28 15:58:00,77.3,61.4,29.67,SW,223,5.0,10.0,58,0.00,,,0.01,Wunderground v.1.13,2013-06-28 20:58:00,
2013-06-28 15:59:00,77.3,60.9,29.67,SW,219,5.0,10.0,57,0.00,,,0.01,Wunderground v.1.13,2013-06-28 20:59:00,
2013-06-28 16:00:00,77.3,60.9,29.67,WNW,297,6.0,7.0,57,0.00,,,0.01,Wunderground v.1.13,2013-06-28 21:00:00,
2013-06-28 16:01:00,77.3,60.9,29.67,West,267,6.0,7.0,57,0.00,,,0.01,Wunderground v.1.13,2013-06-28 21:01:00,
2013-06-28 16:04:00,77.6,61.7,29.67,WSW,247,6.0,8.0,58,0.00,,,0.01,Wunderground v.1.13,2013-06-28 21:04:00,
2013-06-28 16:06:00,77.7,61.7,29.67,WNW,284,7.0,13.0,58,0.00,,,0.01,Wunderground v.1.13,2013-06-28 21:06:00,
2013-06-28 16:07:00,77.8,61.3,29.67,WSW,241,7.0,13.0,57,0.00,,,0.01,Wunderground v.1.13,2013-06-28 21:07:00,
2013-06-28 16:09:00,77.8,60.8,29.67,SW,226,7.0,13.0,56,0.00,,,0.01,Wunderground v.1.13,2013-06-28 21:09:00,
2013-06-28 16:10:00,77.8,60.8,29.67,WSW,249,7.0,10.0,56,0.00,,,0.01,Wunderground v.1.13,2013-06-28 21:10:00,
2013-06-28 16:15:00,76.7,60.8,29.67,WSW,245,9.0,10.0,58,0.00,,,0.01,Wunderground v.1.13,2013-06-28 21:15:00,
2013-06-28 16:16:00,76.5,60.6,29.67,WSW,256,9.0,11.0,58,0.00,,,0.01,Wunderground v.1.13,2013-06-28 21:16:00,
2013-06-28 16:18:00,76.1,59.8,29.68,WSW,245,9.0,11.0,57,0.00,,,0.01,Wunderground v.1.13,2013-06-28 21:18:00,
2013-06-28 16:22:00,75.5,60.6,29.68,West,273,9.0,13.0,60,0.00,,,0.01,Wunderground v.1.13,2013-06-28 21:22:00,
2013-06-28 16:23:00,75.3,60.5,29.68,West,273,9.0,13.0,60,0.00,,,0.01,Wunderground v.1.13,2013-06-28 21:23:00,
2013-06-28 16:24:00,75.3,60.9,29.68,WSW,248,8.0,13.0,61,0.00,,,0.01,Wunderground v.1.13,2013-06-28 21:24:00,
2013-06-28 16:25:00,75.2,60.8,29.68,WNW,294,8.0,8.0,61,0.00,,,0.01,Wunderground v.1.13,2013-06-28 21:25:00,
2013-06-28 16:31:00,76.1,61.7,29.68,NW,312,7.0,9.0,61,0.00,,,0.01,Wunderground v.1.13,2013-06-28 21:31:00,
2013-06-28 16:32:00,76.3,60.4,29.68,West,270,7.0,9.0,58,0.00,,,0.01,Wunderground v.1.13,2013-06-28 21:32:00,
2013-06-28 16:33:00,76.4,61.0,29.68,WNW,289,7.0,9.0,59,0.00,,,0.01,Wunderground v.1.13,2013-06-28 21:33:00,
2013-06-28 16:34:00,76.6,61.2,29.67,West,279,7.0,12.0,59,0.00,,,0.01,Wunderground v.1.13,2013-06-28 21:34:00,
2013-06-28 16:35:00,76.7,60.8,29.68,WSW,252,7.0,12.0,58,0.00,,,0.01,Wunderground v.1.13,2013-06-28 21:35:00,
2013-06-28 16:40:00,77.0,61.1,29.67,WNW,284,7.0,9.0,58,0.00,,,0.01,Wunderground v.1.13,2013-06-28 21:40:00,
2013-06-28 16:41:00,77.1,61.2,29.67,WSW,250,8.0,13.0,58,0.00,,,0.01,Wunderground v.1.13,2013-06-28 21:41:00,
2013-06-28 16:42:00,77.1,60.7,29.67,West,271,8.0,13.0,57,0.00,,,0.01,Wunderground v.1.13,2013-06-28 21:42:00,
2013-06-28 16:44:00,77.1,60.7,29.67,WSW,250,8.0,13.0,57,0.00,,,0.01,Wunderground v.1.13,2013-06-28 21:44:00,
2013-06-28 16:46:00,77.2,61.3,29.67,WSW,243,8.0,9.0,58,0.00,,,0.01,Wunderground v.1.13,2013-06-28 21:46:00,
2013-06-28 16:48:00,77.2,61.3,29.67,West,275,8.0,9.0,58,0.00,,,0.01,Wunderground v.1.13,2013-06-28 21:48:00,
2013-06-28 16:50:00,77.3,60.9,29.67,West,280,8.0,11.0,57,0.00,,,0.01,Wunderground v.1.13,2013-06-28 21:50:00,
2013-06-28 16:52:00,77.3,61.4,29.67,West,268,8.0,9.0,58,0.00,,,0.01,Wunderground v.1.13,2013-06-28 21:52:00,
2013-06-28 16:53:00,77.3,60.9,29.67,West,262,8.0,9.0,57,0.00,,,0.01,Wunderground v.1.13,2013-06-28 21:53:00,
2013-06-28 16:57:00,76.5,60.1,29.67,West,267,9.0,11.0,57,0.00,,,0.01,Wunderground v.1.13,2013-06-28 21:57:00,
2013-06-28 16:59:00,76.1,59.8,29.67,West,268,9.0,13.0,57,0.00,,,0.01,Wunderground v.1.13,2013-06-28 21:59:00,
2013-06-28 17:01:00,75.8,60.4,29.67,WSW,257,9.0,9.0,59,0.00,,,0.01,Wunderground v.1.13,2013-06-28 22:01:00,
2013-06-28 17:02:00,75.8,60.9,29.67,West,275,9.0,9.0,60,0.00,,,0.01,Wunderground v.1.13,2013-06-28 22:02:00,
2013-06-28 17:03:00,75.8,60.4,29.67,West,274,9.0,9.0,59,0.00,,,0.01,Wunderground v.1.13,2013-06-28 22:03:00,
2013-06-28 17:05:00,75.9,61.0,29.67,WSW,255,9.0,9.0,60,0.00,,,0.01,Wunderground v.1.13,2013-06-28 22:05:00,
2013-06-28 17:07:00,76.0,61.1,29.67,WSW,250,8.0,9.0,60,0.00,,,0.01,Wunderground v.1.13,2013-06-28 22:07:00,
2013-06-28 17:09:00,76.1,61.2,29.67,WSW,255,8.0,9.0,60,0.00,,,0.01,Wunderground v.1.13,2013-06-28 22:09:00,
2013-06-28 17:12:00,76.0,61.1,29.67,West,261,8.0,8.0,60,0.00,,,0.01,Wunderground v.1.13,2013-06-28 22:12:00,
2013-06-28 17:15:00,75.8,60.9,29.67,WSW,244,8.0,8.0,60,0.00,,,0.01,Wunderground v.1.13,2013-06-28 22:15:00,
2013-06-28 17:16:00,75.7,60.8,29.67,West,269,8.0,8.0,60,0.00,,,0.01,Wunderground v.1.13,2013-06-28 22:16:00,
2013-06-28 17:18:00,75.7,60.8,29.67,WSW,256,8.0,8.0,60,0.00,,,0.01,Wunderground v.1.13,2013-06-28 22:18:00,
2013-06-28 17:19:00,75.6,60.7,29.67,WNW,287,8.0,8.0,60,0.00,,,0.01,Wunderground v.1.13,2013-06-28 22:19:00,
2013-06-28 17:21:00,75.6,60.7,29.67,West,260,7.0,7.0,60,0.00,,,0.01,Wunderground v.1.13,2013-06-28 22:21:00,
2013-06-28 17:23:00,75.6,60.7,29.67,West,263,7.0,8.0,60,0.00,,,0.01,Wunderground v.1.13,2013-06-28 22:23:00,
2013-06-28 17:25:00,75.5,60.2,29.67,WNW,300,7.0,7.0,59,0.00,,,0.01,Wunderground v.1.13,2013-06-28 22:25:00,
2013-06-28 17:27:00,75.5,60.6,29.67,WNW,298,6.0,7.0,60,0.00,,,0.01,Wunderground v.1.13,2013-06-28 22:27:00,
2013-06-28 17:29:00,75.4,60.1,29.68,NNW,328,6.0,7.0,59,0.00,,,0.01,Wunderground v.1.13,2013-06-28 22:29:00,
2013-06-28 17:31:00,75.3,60.5,29.68,WSW,242,6.0,8.0,60,0.00,,,0.01,Wunderground v.1.13,2013-06-28 22:31:00,
2013-06-28 17:34:00,74.7,60.8,29.69,WNW,290,6.0,12.0,62,0.00,,,0.01,Wunderground v.1.13,2013-06-28 22:34:00,
2013-06-28 17:35:00,74.2,61.7,29.70,North,360,6.0,14.0,65,0.00,,,0.01,Wunderground v.1.13,2013-06-28 22:35:00,
2013-06-28 17:36:00,73.7,61.6,29.69,NW,313,7.0,9.0,66,0.00,,,0.01,Wunderground v.1.13,2013-06-28 22:36:00,
2013-06-28 17:37:00,73.0,61.8,29.70,NNW,327,8.0,9.0,68,0.00,,,0.01,Wunderground v.1.13,2013-06-28 22:37:00,
2013-06-28 17:38:00,72.4,62.1,29.70,West,281,8.0,9.0,70,0.00,,,0.02,Wunderground v.1.13,2013-06-28 22:38:00,
2013-06-28 17:44:00,69.2,62.0,29.69,West,270,7.0,8.0,78,0.15,,,0.05,Wunderground v.1.13,2013-06-28 22:44:00,
2013-06-28 17:45:00,68.8,62.0,29.69,West,270,6.0,8.0,79,0.12,,,0.05,Wunderground v.1.13,2013-06-28 22:45:00,
2013-06-28 17:46:00,68.6,62.2,29.69,West,267,6.0,6.0,80,0.10,,,0.05,Wunderground v.1.13,2013-06-28 22:46:00,
2013-06-28 17:49:00,68.2,62.8,29.69,West,262,4.0,6.0,83,0.06,,,0.05,Wunderground v.1.13,2013-06-28 22:49:00,
2013-06-28 17:51:00,68.3,63.3,29.69,West,261,3.0,4.0,84,0.05,,,0.05,Wunderground v.1.13,2013-06-28 22:51:00,
2013-06-28 17:52:00,68.3,63.3,29.69,West,259,3.0,4.0,84,0.05,,,0.05,Wunderground v.1.13,2013-06-28 22:52:00,
2013-06-28 17:54:00,68.4,63.4,29.69,NNW,338,3.0,6.0,84,0.04,,,0.05,Wunderground v.1.13,2013-06-28 22:54:00,
2013-06-28 17:55:00,68.5,63.5,29.69,WSW,257,3.0,8.0,84,0.04,,,0.05,Wunderground v.1.13,2013-06-28 22:55:00,
2013-06-28 17:57:00,68.7,63.7,29.69,WSW,242,3.0,3.0,84,0.00,,,0.05,Wunderground v.1.13,2013-06-28 22:57:00,
2013-06-28 17:58:00,68.9,64.2,29.69,NW,304,3.0,4.0,85,0.00,,,0.05,Wunderground v.1.13,2013-06-28 22:58:00,
2013-06-28 17:59:00,69.0,64.0,29.69,NW,304,3.0,4.0,84,0.00,,,0.05,Wunderground v.1.13,2013-06-28 22:59:00,
2013-06-28 18:03:00,69.5,63.8,29.68,WNW,289,4.0,9.0,82,0.00,,,0.05,Wunderground v.1.13,2013-06-28 23:03:00,
2013-06-28 18:04:00,69.5,63.8,29.68,West,268,4.0,9.0,82,0.00,,,0.05,Wunderground v.1.13,2013-06-28 23:04:00,
2013-06-28 18:05:00,69.5,63.4,29.68,West,268,4.0,4.0,81,0.00,,,0.05,Wunderground v.1.13,2013-06-28 23:05:00,
2013-06-28 18:07:00,69.5,63.1,29.68,West,264,5.0,7.0,80,0.00,,,0.05,Wunderground v.1.13,2013-06-28 23:07:00,
2013-06-28 18:09:00,69.4,63.0,29.68,West,275,5.0,10.0,80,0.00,,,0.05,Wunderground v.1.13,2013-06-28 23:09:00,
2013-06-28 18:10:00,69.4,63.0,29.68,SW,229,6.0,6.0,80,0.00,,,0.05,Wunderground v.1.13,2013-06-28 23:10:00,
2013-06-28 18:12:00,69.4,63.0,29.68,West,267,6.0,10.0,80,0.00,,,0.05,Wunderground v.1.13,2013-06-28 23:12:00,
2013-06-28 18:16:00,69.2,62.8,29.69,West,263,8.0,8.0,80,0.00,,,0.05,Wunderground v.1.13,2013-06-28 23:16:00,
2013-06-28 18:17:00,69.2,62.8,29.69,WSW,250,8.0,10.0,80,0.00,,,0.05,Wunderground v.1.13,2013-06-28 23:17:00,
2013-06-28 18:18:00,69.1,62.7,29.68,WSW,248,8.0,11.0,80,0.00,,,0.05,Wunderground v.1.13,2013-06-28 23:18:00,
2013-06-28 18:19:00,69.0,62.6,29.69,West,260,8.0,11.0,80,0.00,,,0.05,Wunderground v.1.13,2013-06-28 23:19:00,
2013-06-28 18:23:00,68.7,62.3,29.69,WSW,256,9.0,12.0,80,0.00,,,0.05,Wunderground v.1.13,2013-06-28 23:23:00,
2013-06-28 18:24:00,68.6,62.2,29.69,West,280,9.0,12.0,80,0.00,,,0.05,Wunderground v.1.13,2013-06-28 23:24:00,
2013-06-28 18:25:00,68.5,62.1,29.69,West,266,9.0,9.0,80,0.00,,,0.05,Wunderground v.1.13,2013-06-28 23:25:00,
2013-06-28 18:27:00,68.4,62.3,29.70,West,269,8.0,10.0,81,0.00,,,0.05,Wunderground v.1.13,2013-06-28 23:27:00,
2013-06-28 18:29:00,68.2,62.1,29.69,WSW,241,8.0,10.0,81,0.00,,,0.05,Wunderground v.1.13,2013-06-28 23:29:00,
2013-06-28 18:32:00,68.1,62.0,29.69,WSW,254,7.0,8.0,81,0.00,,,0.05,Wunderground v.1.13,2013-06-28 23:32:00,
2013-06-28 18:33:00,68.1,62.0,29.69,WSW,257,6.0,8.0,81,0.00,,,0.05,Wunderground v.1.13,2013-06-28 23:33:00,
2013-06-28 18:35:00,68.1,62.0,29.69,WSW,250,6.0,7.0,81,0.00,,,0.05,Wunderground v.1.13,2013-06-28 23:35:00,
2013-06-28 18:38:00,68.2,62.1,29.69,WSW,250,5.0,7.0,81,0.00,,,0.05,Wunderground v.1.13,2013-06-28 23:38:00,
2013-06-28 18:39:00,68.2,62.1,29.69,WSW,249,5.0,7.0,81,0.00,,,0.05,Wunderground v.1.13,2013-06-28 23:39:00,
2013-06-28 18:40:00,68.3,62.6,29.69,WSW,249,5.0,5.0,82,0.00,,,0.05,Wunderground v.1.13,2013-06-28 23:40:00,
2013-06-28 18:41:00,68.3,62.6,29.69,WSW,251,5.0,5.0,82,0.00,,,0.05,Wunderground v.1.13,2013-06-28 23:41:00,
2013-06-28 18:42:00,68.4,62.7,29.69,WSW,256,5.0,5.0,82,0.00,,,0.05,Wunderground v.1.13,2013-06-28 23:42:00,
2013-06-28 18:44:00,68.4,62.7,29.69,WSW,257,5.0,5.0,82,0.00,,,0.05,Wunderground v.1.13,2013-06-28 23:44:00,
2013-06-28 18:45:00,68.4,62.7,29.69,WSW,257,4.0,4.0,82,0.00,,,0.05,Wunderground v.1.13,2013-06-28 23:45:00,
2013-06-28 18:46:00,68.5,62.8,29.69,West,274,4.0,5.0,82,0.00,,,0.05,Wunderground v.1.13,2013-06-28 23:46:00,
2013-06-28 18:48:00,68.5,62.4,29.69,West,275,4.0,5.0,81,0.00,,,0.05,Wunderground v.1.13,2013-06-28 23:48:00,
2013-06-28 18:52:00,68.5,62.1,29.69,West,266,4.0,5.0,80,0.00,,,0.05,Wunderground v.1.13,2013-06-28 23:52:00,
2013-06-28 18:53:00,68.5,62.1,29.69,West,260,4.0,5.0,80,0.00,,,0.05,Wunderground v.1.13,2013-06-28 23:53:00,
2013-06-28 18:55:00,68.5,61.7,29.69,NE,48,4.0,4.0,79,0.00,,,0.05,Wunderground v.1.13,2013-06-28 23:55:00,
2013-06-28 18:58:00,68.5,61.0,29.69,NW,317,4.0,6.0,77,0.00,,,0.05,Wunderground v.1.13,2013-06-28 23:58:00,
2013-06-28 18:59:00,68.6,61.1,29.69,West,269,4.0,6.0,77,0.00,,,0.05,Wunderground v.1.13,2013-06-28 23:59:00,
2013-06-28 19:01:00,68.6,61.1,29.69,NW,316,4.0,6.0,77,0.00,,,0.05,Wunderground v.1.13,2013-06-29 00:01:00,
2013-06-28 19:02:00,68.6,61.1,29.69,North,11,5.0,6.0,77,0.00,,,0.05,Wunderground v.1.13,2013-06-29 00:02:00,
2013-06-28 19:05:00,68.7,60.8,29.69,West,272,5.0,5.0,76,0.00,,,0.05,Wunderground v.1.13,2013-06-29 00:05:00,
2013-06-28 19:07:00,68.7,60.8,29.70,WNW,295,5.0,6.0,76,0.00,,,0.05,Wunderground v.1.13,2013-06-29 00:07:00,
2013-06-28 19:08:00,68.8,60.9,29.70,West,279,5.0,6.0,76,0.00,,,0.05,Wunderground v.1.13,2013-06-29 00:08:00,
2013-06-28 19:13:00,68.8,60.9,29.70,West,277,5.0,8.0,76,0.00,,,0.05,Wunderground v.1.13,2013-06-29 00:13:00,
2013-06-28 19:15:00,68.9,61.0,29.70,WNW,287,5.0,5.0,76,0.00,,,0.05,Wunderground v.1.13,2013-06-29 00:15:00,
2013-06-28 19:17:00,68.9,61.0,29.70,West,264,4.0,5.0,76,0.00,,,0.05,Wunderground v.1.13,2013-06-29 00:17:00,
2013-06-28 19:19:00,68.9,61.0,29.70,West,274,4.0,5.0,76,0.00,,,0.05,Wunderground v.1.13,2013-06-29 00:19:00,
2013-06-28 19:22:00,68.9,61.0,29.70,West,281,3.0,4.0,76,0.00,,,0.05,Wunderground v.1.13,2013-06-29 00:22:00,
2013-06-28 19:23:00,68.9,61.4,29.70,West,281,3.0,4.0,77,0.00,,,0.05,Wunderground v.1.13,2013-06-29 00:23:00,
2013-06-28 19:26:00,68.9,61.4,29.70,West,271,3.0,4.0,77,0.00,,,0.05,Wunderground v.1.13,2013-06-29 00:26:00,
2013-06-28 19:29:00,69.0,61.5,29.70,West,263,3.0,7.0,77,0.00,,,0.05,Wunderground v.1.13,2013-06-29 00:29:00,
2013-06-28 19:31:00,69.0,61.5,29.70,West,268,3.0,5.0,77,0.00,,,0.05,Wunderground v.1.13,2013-06-29 00:31:00,
2013-06-28 19:34:00,69.1,61.6,29.70,WNW,293,3.0,6.0,77,0.00,,,0.05,Wunderground v.1.13,2013-06-29 00:34:00,
2013-06-28 19:36:00,69.1,61.6,29.70,WNW,294,3.0,3.0,77,0.00,,,0.05,Wunderground v.1.13,2013-06-29 00:36:00,
2013-06-28 19:40:00,69.2,61.7,29.70,West,271,2.0,5.0,77,0.00,,,0.05,Wunderground v.1.13,2013-06-29 00:40:00,
2013-06-28 19:41:00,69.2,61.7,29.70,NW,307,2.0,5.0,77,0.00,,,0.05,Wunderground v.1.13,2013-06-29 00:41:00,
2013-06-28 19:44:00,69.2,61.7,29.70,NW,313,3.0,5.0,77,0.00,,,0.05,Wunderground v.1.13,2013-06-29 00:44:00,
2013-06-28 19:46:00,69.3,61.4,29.70,NW,314,3.0,3.0,76,0.00,,,0.05,Wunderground v.1.13,2013-06-29 00:46:00,
2013-06-28 19:47:00,69.3,61.4,29.70,NW,319,3.0,3.0,76,0.00,,,0.05,Wunderground v.1.13,2013-06-29 00:47:00,
2013-06-28 19:51:00,69.3,61.4,29.70,West,260,3.0,7.0,76,0.00,,,0.05,Wunderground v.1.13,2013-06-29 00:51:00,
2013-06-28 19:53:00,69.3,61.4,29.70,West,275,3.0,7.0,76,0.00,,,0.05,Wunderground v.1.13,2013-06-29 00:53:00,
2013-06-28 19:54:00,69.3,61.4,29.71,West,281,3.0,7.0,76,0.00,,,0.05,Wunderground v.1.13,2013-06-29 00:54:00,
2013-06-28 19:57:00,69.3,61.4,29.71,NW,304,4.0,5.0,76,0.00,,,0.05,Wunderground v.1.13,2013-06-29 00:57:00,
2013-06-28 19:58:00,69.3,61.4,29.70,WNW,285,4.0,5.0,76,0.00,,,0.05,Wunderground v.1.13,2013-06-29 00:58:00,
2013-06-28 19:59:00,69.3,61.8,29.70,WSW,253,4.0,5.0,77,0.00,,,0.05,Wunderground v.1.13,2013-06-29 00:59:00,
2013-06-28 20:00:00,69.2,61.7,29.71,WSW,253,4.0,4.0,77,0.00,,,0.05,Wunderground v.1.13,2013-06-29 01:00:00,
2013-06-28 20:03:00,69.2,61.7,29.71,WSW,249,3.0,5.0,77,0.00,,,0.05,Wunderground v.1.13,2013-06-29 01:03:00,
2013-06-28 20:05:00,69.2,61.7,29.71,West,280,3.0,5.0,77,0.00,,,0.05,Wunderground v.1.13,2013-06-29 01:05:00,
2013-06-28 20:06:00,69.2,61.7,29.71,West,271,3.0,5.0,77,0.00,,,0.05,Wunderground v.1.13,2013-06-29 01:06:00,
2013-06-28 20:07:00,69.2,62.0,29.71,WSW,252,3.0,5.0,78,0.00,,,0.05,Wunderground v.1.13,2013-06-29 01:07:00,
2013-06-28 20:09:00,69.2,62.0,29.71,WSW,256,3.0,5.0,78,0.00,,,0.05,Wunderground v.1.13,2013-06-29 01:09:00,
2013-06-28 20:13:00,69.1,61.9,29.71,WSW,244,4.0,5.0,78,0.00,,,0.05,Wunderground v.1.13,2013-06-29 01:13:00,
2013-06-28 20:14:00,69.1,61.9,29.71,WSW,254,3.0,5.0,78,0.00,,,0.05,Wunderground v.1.13,2013-06-29 01:14:00,
2013-06-28 20:15:00,69.1,61.9,29.71,WNW,288,3.0,5.0,78,0.00,,,0.05,Wunderground v.1.13,2013-06-29 01:15:00,
2013-06-28 20:16:00,69.1,61.9,29.71,WNW,284,3.0,5.0,78,0.00,,,0.05,Wunderground v.1.13,2013-06-29 01:16:00,
2013-06-28 20:19:00,69.1,61.9,29.71,WNW,294,3.0,5.0,78,0.00,,,0.05,Wunderground v.1.13,2013-06-29 01:19:00,
2013-06-28 20:21:00,69.2,62.0,29.71,West,260,3.0,7.0,78,0.00,,,0.05,Wunderground v.1.13,2013-06-29 01:21:00,
2013-06-28 20:22:00,69.2,62.0,29.71,West,259,3.0,7.0,78,0.00,,,0.05,Wunderground v.1.13,2013-06-29 01:22:00,
2013-06-28 20:24:00,69.2,62.0,29.71,WNW,284,2.0,7.0,78,0.00,,,0.05,Wunderground v.1.13,2013-06-29 01:24:00,
2013-06-28 20:27:00,69.2,62.0,29.71,NNE,16,2.0,3.0,78,0.00,,,0.06,Wunderground v.1.13,2013-06-29 01:27:00,
2013-06-28 20:28:00,69.3,62.1,29.70,NNW,333,2.0,3.0,78,0.00,,,0.06,Wunderground v.1.13,2013-06-29 01:28:00,
2013-06-28 20:29:00,69.3,62.1,29.70,NNW,333,2.0,4.0,78,0.00,,,0.06,Wunderground v.1.13,2013-06-29 01:29:00,
2013-06-28 20:33:00,69.4,62.2,29.70,North,360,1.0,6.0,78,0.00,,,0.06,Wunderground v.1.13,2013-06-29 01:33:00,
2013-06-28 20:35:00,69.4,62.2,29.71,WNW,289,2.0,2.0,78,0.00,,,0.06,Wunderground v.1.13,2013-06-29 01:35:00,
2013-06-28 20:36:00,69.4,62.2,29.70,WNW,288,2.0,3.0,78,0.00,,,0.06,Wunderground v.1.13,2013-06-29 01:36:00,
2013-06-28 20:37:00,69.4,62.2,29.70,West,270,2.0,5.0,78,0.00,,,0.06,Wunderground v.1.13,2013-06-29 01:37:00,
2013-06-28 20:41:00,69.4,62.2,29.71,West,281,2.0,2.0,78,0.00,,,0.06,Wunderground v.1.13,2013-06-29 01:41:00,
2013-06-28 20:42:00,69.4,62.2,29.70,WNW,283,2.0,2.0,78,0.00,,,0.06,Wunderground v.1.13,2013-06-29 01:42:00,
2013-06-28 20:43:00,69.4,62.2,29.71,WNW,284,2.0,2.0,78,0.00,,,0.06,Wunderground v.1.13,2013-06-29 01:43:00,
2013-06-28 20:46:00,69.4,62.2,29.71,WNW,294,1.0,4.0,78,0.00,,,0.06,Wunderground v.1.13,2013-06-29 01:46:00,
2013-06-28 20:48:00,69.4,62.2,29.71,WNW,286,1.0,5.0,78,0.00,,,0.06,Wunderground v.1.13,2013-06-29 01:48:00,
2013-06-28 20:49:00,69.4,62.2,29.71,NW,321,1.0,5.0,78,0.00,,,0.06,Wunderground v.1.13,2013-06-29 01:49:00,
2013-06-28 20:50:00,69.4,62.2,29.71,North,360,2.0,2.0,78,0.00,,,0.06,Wunderground v.1.13,2013-06-29 01:50:00,
2013-06-28 20:54:00,69.5,62.3,29.71,WNW,290,2.0,8.0,78,0.00,,,0.06,Wunderground v.1.13,2013-06-29 01:54:00,
2013-06-28 20:56:00,69.4,62.2,29.71,West,276,3.0,5.0,78,0.00,,,0.06,Wunderground v.1.13,2013-06-29 01:56:00,
2013-06-28 20:57:00,69.4,62.2,29.71,NNW,344,3.0,5.0,78,0.00,,,0.06,Wunderground v.1.13,2013-06-29 01:57:00,
2013-06-28 20:59:00,69.4,62.2,29.71,West,279,3.0,5.0,78,0.00,,,0.06,Wunderground v.1.13,2013-06-29 01:59:00,
2013-06-28 21:00:00,69.4,62.2,29.71,West,281,3.0,3.0,78,0.00,,,0.06,Wunderground v.1.13,2013-06-29 02:00:00,
2013-06-28 21:03:00,69.4,62.2,29.71,WNW,295,3.0,3.0,78,0.00,,,0.06,Wunderground v.1.13,2013-06-29 02:03:00,
2013-06-28 21:04:00,69.4,62.2,29.71,WNW,296,3.0,3.0,78,0.00,,,0.06,Wunderground v.1.13,2013-06-29 02:04:00,
2013-06-28 21:06:00,69.4,62.2,29.71,WNW,295,2.0,2.0,78,0.00,,,0.06,Wunderground v.1.13,2013-06-29 02:06:00,
2013-06-28 21:07:00,69.4,62.2,29.71,NW,319,2.0,3.0,78,0.00,,,0.06,Wunderground v.1.13,2013-06-29 02:07:00,
2013-06-28 21:10:00,69.2,62.4,29.72,NNW,327,3.0,4.0,79,3.74,,,0.14,Wunderground v.1.13,2013-06-29 02:10:00,
2013-06-28 21:12:00,68.6,62.2,29.73,WNW,290,4.0,10.0,80,0.39,,,0.16,Wunderground v.1.13,2013-06-29 02:12:00,
2013-06-28 21:14:00,68.0,61.9,29.73,WNW,282,5.0,10.0,81,0.55,,,0.18,Wunderground v.1.13,2013-06-29 02:14:00,
2013-06-28 21:15:00,67.7,62.0,29.73,NW,312,6.0,9.0,82,0.31,,,0.18,Wunderground v.1.13,2013-06-29 02:15:00,
2013-06-28 21:16:00,67.4,61.7,29.73,NW,317,6.0,9.0,82,0.20,,,0.18,Wunderground v.1.13,2013-06-29 02:16:00,
2013-06-28 21:21:00,66.2,61.2,29.73,North,5,5.0,5.0,84,0.12,,,0.19,Wunderground v.1.13,2013-06-29 02:21:00,
2013-06-28 21:22:00,66.1,61.5,29.73,NNW,333,4.0,5.0,85,0.12,,,0.19,Wunderground v.1.13,2013-06-29 02:22:00,
2013-06-28 21:26:00,65.6,61.0,29.72,NW,313,3.0,5.0,85,0.07,,,0.19,Wunderground v.1.13,2013-06-29 02:26:00,
2013-06-28 21:28:00,65.4,61.1,29.72,NW,314,2.0,5.0,86,0.07,,,0.20,Wunderground v.1.13,2013-06-29 02:28:00,
2013-06-28 21:29:00,65.3,61.0,29.72,NW,314,2.0,7.0,86,0.07,,,0.20,Wunderground v.1.13,2013-06-29 02:29:00,
2013-06-28 21:31:00,65.1,60.8,29.72,North,9,2.0,4.0,86,0.07,,,0.20,Wunderground v.1.13,2013-06-29 02:31:00,
2013-06-28 21:34:00,64.9,60.6,29.72,NNW,339,2.0,4.0,86,0.07,,,0.20,Wunderground v.1.13,2013-06-29 02:34:00,
2013-06-28 21:35:00,64.8,60.8,29.72,NNW,340,2.0,2.0,87,0.07,,,0.20,Wunderground v.1.13,2013-06-29 02:35:00,
2013-06-28 21:39:00,64.5,60.5,29.73,North,355,2.0,5.0,87,0.05,,,0.20,Wunderground v.1.13,2013-06-29 02:39:00,
2013-06-28 21:40:00,64.5,60.5,29.73,NNW,342,2.0,2.0,87,0.04,,,0.20,Wunderground v.1.13,2013-06-29 02:40:00,
2013-06-28 21:43:00,64.5,60.9,29.73,NNW,343,1.0,2.0,88,0.04,,,0.20,Wunderground v.1.13,2013-06-29 02:43:00,
2013-06-28 21:46:00,64.4,60.8,29.73,West,277,1.0,6.0,88,0.00,,,0.20,Wunderground v.1.13,2013-06-29 02:46:00,
2013-06-28 21:47:00,64.4,60.8,29.73,West,278,2.0,6.0,88,0.00,,,0.20,Wunderground v.1.13,2013-06-29 02:47:00,
2013-06-28 21:50:00,64.3,60.7,29.73,NW,312,2.0,2.0,88,0.00,,,0.21,Wunderground v.1.13,2013-06-29 02:50:00,
2013-06-28 21:52:00,64.2,60.9,29.73,WNW,298,3.0,6.0,89,0.00,,,0.21,Wunderground v.1.13,2013-06-29 02:52:00,
2013-06-28 21:53:00,64.2,60.9,29.73,West,279,3.0,7.0,89,0.00,,,0.21,Wunderground v.1.13,2013-06-29 02:53:00,
2013-06-28 21:54:00,64.2,60.9,29.73,WNW,284,4.0,7.0,89,0.00,,,0.21,Wunderground v.1.13,2013-06-29 02:54:00,
2013-06-28 21:57:00,64.1,60.8,29.73,NW,307,3.0,4.0,89,0.10,,,0.22,Wunderground v.1.13,2013-06-29 02:57:00,
2013-06-28 21:59:00,64.0,60.7,29.73,NW,321,4.0,4.0,89,0.10,,,0.22,Wunderground v.1.13,2013-06-29 02:59:00,
2013-06-28 22:00:00,64.0,60.7,29.73,WNW,290,4.0,4.0,89,0.10,,,0.22,Wunderground v.1.13,2013-06-29 03:00:00,
2013-06-28 22:03:00,63.9,60.6,29.73,West,259,4.0,8.0,89,0.07,,,0.22,Wunderground v.1.13,2013-06-29 03:03:00,
2013-06-28 22:06:00,63.9,60.6,29.73,West,277,4.0,8.0,89,0.05,,,0.22,Wunderground v.1.13,2013-06-29 03:06:00,
2013-06-28 22:07:00,63.8,60.5,29.73,NE,49,4.0,8.0,89,0.05,,,0.22,Wunderground v.1.13,2013-06-29 03:07:00,
2013-06-28 22:10:00,63.8,60.5,29.73,WNW,296,4.0,4.0,89,0.05,,,0.23,Wunderground v.1.13,2013-06-29 03:10:00,
2013-06-28 22:13:00,63.7,60.4,29.73,NW,325,4.0,6.0,89,0.05,,,0.23,Wunderground v.1.13,2013-06-29 03:13:00,
2013-06-28 22:14:00,63.7,60.4,29.73,NW,314,4.0,6.0,89,0.05,,,0.23,Wunderground v.1.13,2013-06-29 03:14:00,
2013-06-28 22:15:00,63.7,60.4,29.73,WNW,284,4.0,5.0,89,0.05,,,0.23,Wunderground v.1.13,2013-06-29 03:15:00,
2013-06-28 22:20:00,63.6,60.3,29.73,West,274,3.0,3.0,89,0.05,,,0.23,Wunderground v.1.13,2013-06-29 03:20:00,
2013-06-28 22:21:00,63.6,60.6,29.73,West,273,3.0,4.0,90,0.04,,,0.23,Wunderground v.1.13,2013-06-29 03:21:00,
2013-06-28 22:22:00,63.6,60.3,29.73,West,273,3.0,4.0,89,0.04,,,0.23,Wunderground v.1.13,2013-06-29 03:22:00,
2013-06-28 22:23:00,63.5,60.2,29.73,WNW,286,3.0,4.0,89,0.04,,,0.23,Wunderground v.1.13,2013-06-29 03:23:00,
2013-06-28 22:26:00,63.5,60.5,29.73,WNW,290,2.0,5.0,90,0.00,,,0.23,Wunderground v.1.13,2013-06-29 03:26:00,
2013-06-28 22:27:00,63.5,60.5,29.73,WNW,290,2.0,5.0,90,0.00,,,0.23,Wunderground v.1.13,2013-06-29 03:27:00,
2013-06-28 22:29:00,63.5,60.5,29.73,WNW,289,2.0,5.0,90,0.00,,,0.23,Wunderground v.1.13,2013-06-29 03:29:00,
2013-06-28 22:31:00,63.4,60.4,29.72,WNW,290,1.0,3.0,90,0.00,,,0.23,Wunderground v.1.13,2013-06-29 03:31:00,
2013-06-28 22:32:00,63.4,60.4,29.72,WNW,290,1.0,3.0,90,0.00,,,0.24,Wunderground v.1.13,2013-06-29 03:32:00,
2013-06-28 22:34:00,63.4,60.4,29.72,WNW,290,1.0,3.0,90,0.00,,,0.24,Wunderground v.1.13,2013-06-29 03:34:00,
2013-06-28 22:36:00,63.4,60.4,29.72,WNW,290,1.0,2.0,90,0.00,,,0.24,Wunderground v.1.13,2013-06-29 03:36:00,
2013-06-28 22:37:00,63.4,60.4,29.72,WNW,290,1.0,2.0,90,0.00,,,0.24,Wunderground v.1.13,2013-06-29 03:37:00,
2013-06-28 22:38:00,63.4,60.4,29.72,WNW,290,1.0,2.0,90,0.00,,,0.24,Wunderground v.1.13,2013-06-29 03:38:00,
2013-06-28 22:41:00,63.3,60.3,29.72,WNW,289,1.0,1.0,90,0.00,,,0.24,Wunderground v.1.13,2013-06-29 03:41:00,
2013-06-28 22:43:00,63.3,60.3,29.72,WNW,289,1.0,1.0,90,0.00,,,0.24,Wunderground v.1.13,2013-06-29 03:43:00,
2013-06-28 22:44:00,63.3,60.3,29.72,WNW,289,1.0,1.0,90,0.00,,,0.24,Wunderground v.1.13,2013-06-29 03:44:00,
2013-06-28 22:45:00,63.3,60.3,29.72,WNW,290,1.0,1.0,90,0.00,,,0.24,Wunderground v.1.13,2013-06-29 03:45:00,
2013-06-28 22:46:00,63.3,60.3,29.72,WNW,290,1.0,2.0,90,0.00,,,0.24,Wunderground v.1.13,2013-06-29 03:46:00,
2013-06-28 22:48:00,63.3,60.3,29.72,WNW,290,1.0,2.0,90,0.00,,,0.24,Wunderground v.1.13,2013-06-29 03:48:00,
2013-06-28 22:53:00,63.3,60.6,29.72,WNW,290,0.0,1.0,91,0.00,,,0.24,Wunderground v.1.13,2013-06-29 03:53:00,
2013-06-28 22:55:00,63.3,60.6,29.72,WNW,290,1.0,2.0,91,0.00,,,0.24,Wunderground v.1.13,2013-06-29 03:55:00,
2013-06-28 22:56:00,63.3,60.6,29.72,WNW,290,1.0,2.0,91,0.00,,,0.24,Wunderground v.1.13,2013-06-29 03:56:00,
2013-06-28 22:59:00,63.3,60.6,29.72,WNW,290,1.0,2.0,91,0.00,,,0.24,Wunderground v.1.13,2013-06-29 03:59:00,
2013-06-28 23:00:00,63.3,60.6,29.72,WNW,290,1.0,2.0,91,0.00,,,0.24,Wunderground v.1.13,2013-06-29 04:00:00,
2013-06-28 23:01:00,63.3,60.6,29.72,WNW,290,1.0,2.0,91,0.00,,,0.24,Wunderground v.1.13,2013-06-29 04:01:00,
2013-06-28 23:02:00,63.3,60.6,29.72,WNW,290,1.0,2.0,91,0.00,,,0.24,Wunderground v.1.13,2013-06-29 04:02:00,
2013-06-28 23:03:00,63.3,60.6,29.72,WNW,290,1.0,2.0,91,0.00,,,0.24,Wunderground v.1.13,2013-06-29 04:03:00,
2013-06-28 23:06:00,63.2,60.5,29.72,WNW,290,1.0,1.0,91,0.00,,,0.25,Wunderground v.1.13,2013-06-29 04:06:00,
2013-06-28 23:09:00,63.2,60.5,29.72,WNW,290,0.0,1.0,91,0.00,,,0.25,Wunderground v.1.13,2013-06-29 04:09:00,
2013-06-28 23:11:00,63.2,60.5,29.72,WNW,290,0.0,4.0,91,0.00,,,0.25,Wunderground v.1.13,2013-06-29 04:11:00,
2013-06-28 23:13:00,63.2,60.5,29.72,WNW,290,1.0,4.0,91,0.00,,,0.25,Wunderground v.1.13,2013-06-29 04:13:00,
2013-06-28 23:15:00,63.2,60.5,29.72,WNW,290,1.0,1.0,91,0.00,,,0.25,Wunderground v.1.13,2013-06-29 04:15:00,
2013-06-28 23:16:00,63.2,60.5,29.72,WNW,290,1.0,2.0,91,0.00,,,0.25,Wunderground v.1.13,2013-06-29 04:16:00,
2013-06-28 23:18:00,63.2,60.5,29.72,WNW,290,1.0,2.0,91,0.05,,,0.26,Wunderground v.1.13,2013-06-29 04:18:00,
2013-06-28 23:19:00,63.2,60.5,29.71,WNW,290,1.0,2.0,91,0.05,,,0.26,Wunderground v.1.13,2013-06-29 04:19:00,
2013-06-28 23:20:00,63.2,60.5,29.71,WNW,290,1.0,1.0,91,0.05,,,0.26,Wunderground v.1.13,2013-06-29 04:20:00,
2013-06-28 23:24:00,63.2,60.5,29.71,WNW,289,1.0,1.0,91,0.05,,,0.26,Wunderground v.1.13,2013-06-29 04:24:00,
2013-06-28 23:25:00,63.1,60.4,29.71,WNW,290,1.0,1.0,91,0.05,,,0.26,Wunderground v.1.13,2013-06-29 04:25:00,
2013-06-28 23:26:00,63.2,60.5,29.71,WNW,288,1.0,2.0,91,0.05,,,0.26,Wunderground v.1.13,2013-06-29 04:26:00,
2013-06-28 23:29:00,63.2,60.5,29.71,WNW,288,1.0,4.0,91,0.05,,,0.26,Wunderground v.1.13,2013-06-29 04:29:00,
2013-06-28 23:30:00,63.2,60.5,29.71,WNW,288,1.0,1.0,91,0.04,,,0.26,Wunderground v.1.13,2013-06-29 04:30:00,
2013-06-28 23:33:00,63.1,60.4,29.71,WNW,288,1.0,1.0,91,0.04,,,0.26,Wunderground v.1.13,2013-06-29 04:33:00,
2013-06-28 23:34:00,63.1,60.4,29.71,WNW,288,1.0,2.0,91,0.00,,,0.26,Wunderground v.1.13,2013-06-29 04:34:00,
2013-06-28 23:35:00,63.1,60.4,29.71,West,272,1.0,5.0,91,0.00,,,0.26,Wunderground v.1.13,2013-06-29 04:35:00,
2013-06-28 23:38:00,63.2,60.5,29.71,West,272,1.0,5.0,91,0.00,,,0.26,Wunderground v.1.13,2013-06-29 04:38:00,
2013-06-28 23:42:00,63.1,60.4,29.71,West,267,2.0,5.0,91,0.00,,,0.26,Wunderground v.1.13,2013-06-29 04:42:00,
2013-06-28 23:44:00,63.1,60.4,29.71,West,267,2.0,5.0,91,0.00,,,0.26,Wunderground v.1.13,2013-06-29 04:44:00,
2013-06-28 23:48:00,63.1,60.7,29.70,West,267,2.0,2.0,92,0.00,,,0.26,Wunderground v.1.13,2013-06-29 04:48:00,
2013-06-28 23:49:00,63.1,60.7,29.70,West,267,2.0,2.0,92,0.00,,,0.26,Wunderground v.1.13,2013-06-29 04:49:00,
2013-06-28 23:50:00,63.2,60.8,29.70,West,267,1.0,1.0,92,0.00,,,0.26,Wunderground v.1.13,2013-06-29 04:50:00,
2013-06-28 23:51:00,63.1,60.7,29.70,West,267,1.0,1.0,92,0.00,,,0.26,Wunderground v.1.13,2013-06-29 04:51:00,
2013-06-28 23:52:00,63.1,60.7,29.70,West,267,1.0,1.0,92,0.00,,,0.26,Wunderground v.1.13,2013-06-29 04:52:00,
2013-06-28 23:55:00,63.2,60.8,29.70,West,267,0.0,0.0,92,0.00,,,0.26,Wunderground v.1.13,2013-06-29 04:55:00,
2013-06-28 23:56:00,63.3,60.9,29.70,West,267,0.0,1.0,92,0.00,,,0.26,Wunderground v.1.13,2013-06-29 04:56:00,
2013-06-28 23:57:00,63.3,60.9,29.70,West,267,0.0,1.0,92,0.00,,,0.26,Wunderground v.1.13,2013-06-29 04:57:00,